Time,TemperatureF,DewpointF,PressureIn,WindDirection,WindDirectionDegrees,WindSpeedMPH,WindSpeedGustMPH,Humidity,HourlyPrecipIn,Conditions,Clouds,dailyrainin,SoftwareType,DateUTC
2013-03-29 00:04:00,30.3,18.8,30.25,ESE,123,0.0,0.0,62,0.00,,,0.00,Wunderground v.1.13,2013-03-29 05:04:00,
2013-03-29 00:05:00,30.3,19.2,30.25,ESE,123,0.0,0.0,63,0.00,,,0.00,Wunderground v.1.13,2013-03-29 05:05:00,
2013-03-29 00:06:00,30.2,19.1,30.25,ESE,123,0.0,0.0,63,0.00,,,0.00,Wunderground v.1.13,2013-03-29 05:06:00,
2013-03-29 00:12:00,29.8,18.7,30.25,ESE,123,0.0,0.0,63,0.00,,,0.00,Wunderground v.1.13,2013-03-29 05:12:00,
2013-03-29 00:13:00,29.7,18.6,30.25,ESE,123,0.0,0.0,63,0.00,,,0.00,Wunderground v.1.13,2013-03-29 05:13:00,
2013-03-29 00:15:00,29.6,18.5,30.25,ESE,123,0.0,0.0,63,0.00,,,0.00,Wunderground v.1.13,2013-03-29 05:15:00,
2013-03-29 00:17:00,29.5,18.8,30.25,ESE,123,0.0,0.0,64,0.00,,,0.00,Wunderground v.1.13,2013-03-29 05:17:00,
2013-03-29 00:18:00,29.4,18.7,30.25,ESE,123,0.0,0.0,64,0.00,,,0.00,Wunderground v.1.13,2013-03-29 05:18:00,
2013-03-29 00:19:00,29.4,18.7,30.25,ESE,123,0.0,0.0,64,0.00,,,0.00,Wunderground v.1.13,2013-03-29 05:19:00,
2013-03-29 00:21:00,29.3,18.6,30.25,ESE,123,0.0,0.0,64,0.00,,,0.00,Wunderground v.1.13,2013-03-29 05:21:00,
2013-03-29 00:23:00,29.2,18.5,30.25,ESE,123,0.0,0.0,64,0.00,,,0.00,Wunderground v.1.13,2013-03-29 05:23:00,
2013-03-29 00:25:00,29.0,18.7,30.25,ESE,123,0.0,0.0,65,0.00,,,0.00,Wunderground v.1.13,2013-03-29 05:25:00,
2013-03-29 00:27:00,28.9,18.6,30.25,ESE,123,0.0,0.0,65,0.00,,,0.00,Wunderground v.1.13,2013-03-29 05:27:00,
2013-03-29 00:30:00,28.7,18.8,30.25,ESE,123,0.0,0.0,66,0.00,,,0.00,Wunderground v.1.13,2013-03-29 05:30:00,
2013-03-29 00:32:00,28.6,18.7,30.25,ESE,123,0.0,0.0,66,0.00,,,0.00,Wunderground v.1.13,2013-03-29 05:32:00,
2013-03-29 00:37:00,28.5,18.6,30.25,ESE,123,0.0,0.0,66,0.00,,,0.00,Wunderground v.1.13,2013-03-29 05:37:00,
2013-03-29 00:38:00,28.5,18.6,30.25,ESE,123,0.0,0.0,66,0.00,,,0.00,Wunderground v.1.13,2013-03-29 05:38:00,
2013-03-29 00:39:00,28.5,18.6,30.25,ESE,123,0.0,0.0,66,0.00,,,0.00,Wunderground v.1.13,2013-03-29 05:39:00,
2013-03-29 00:40:00,28.5,18.6,30.25,ESE,123,0.0,0.0,66,0.00,,,0.00,Wunderground v.1.13,2013-03-29 05:40:00,
2013-03-29 00:44:00,28.3,18.7,30.25,ESE,123,0.0,0.0,67,0.00,,,0.00,Wunderground v.1.13,2013-03-29 05:44:00,
2013-03-29 00:48:00,28.1,18.9,30.25,ESE,123,0.0,0.0,68,0.00,,,0.00,Wunderground v.1.13,2013-03-29 05:48:00,
2013-03-29 00:49:00,28.0,18.8,30.25,ESE,123,0.0,0.0,68,0.00,,,0.00,Wunderground v.1.13,2013-03-29 05:49:00,
2013-03-29 00:50:00,28.0,19.1,30.25,ESE,123,0.0,0.0,69,0.00,,,0.00,Wunderground v.1.13,2013-03-29 05:50:00,
2013-03-29 00:51:00,27.9,19.0,30.25,ESE,123,0.0,0.0,69,0.00,,,0.00,Wunderground v.1.13,2013-03-29 05:51:00,
2013-03-29 00:54:00,27.8,18.9,30.25,ESE,123,0.0,0.0,69,0.00,,,0.00,Wunderground v.1.13,2013-03-29 05:54:00,
2013-03-29 00:55:00,27.8,18.9,30.25,ESE,123,0.0,0.0,69,0.00,,,0.00,Wunderground v.1.13,2013-03-29 05:55:00,
2013-03-29 00:59:00,27.5,19.0,30.25,ESE,123,0.0,0.0,70,0.00,,,0.00,Wunderground v.1.13,2013-03-29 05:59:00,
2013-03-29 01:02:00,27.4,18.9,30.26,ESE,123,0.0,0.0,70,0.00,,,0.00,Wunderground v.1.13,2013-03-29 06:02:00,
2013-03-29 01:04:00,27.3,19.1,30.26,ESE,123,0.0,0.0,71,0.00,,,0.00,Wunderground v.1.13,2013-03-29 06:04:00,
2013-03-29 01:08:00,27.1,18.9,30.26,ESE,123,0.0,0.0,71,0.00,,,0.00,Wunderground v.1.13,2013-03-29 06:08:00,
2013-03-29 01:10:00,27.1,18.9,30.25,ESE,123,0.0,0.0,71,0.00,,,0.00,Wunderground v.1.13,2013-03-29 06:10:00,
2013-03-29 01:14:00,27.0,19.2,30.25,ESE,123,0.0,0.0,72,0.00,,,0.00,Wunderground v.1.13,2013-03-29 06:14:00,
2013-03-29 01:17:00,27.1,18.9,30.25,ESE,123,0.0,0.0,71,0.00,,,0.00,Wunderground v.1.13,2013-03-29 06:17:00,
2013-03-29 01:18:00,27.1,18.9,30.26,ESE,123,0.0,0.0,71,0.00,,,0.00,Wunderground v.1.13,2013-03-29 06:18:00,
2013-03-29 01:19:00,27.1,18.9,30.25,ESE,123,0.0,0.0,71,0.00,,,0.00,Wunderground v.1.13,2013-03-29 06:19:00,
2013-03-29 01:22:00,27.1,18.9,30.25,ESE,123,0.0,0.0,71,0.00,,,0.00,Wunderground v.1.13,2013-03-29 06:22:00,
2013-03-29 01:26:00,27.1,18.9,30.26,ESE,123,0.0,0.0,71,0.00,,,0.00,Wunderground v.1.13,2013-03-29 06:26:00,
2013-03-29 01:27:00,27.0,18.8,30.26,ESE,123,0.0,0.0,71,0.00,,,0.00,Wunderground v.1.13,2013-03-29 06:27:00,
2013-03-29 01:30:00,26.9,18.7,30.26,ESE,123,0.0,0.0,71,0.00,,,0.00,Wunderground v.1.13,2013-03-29 06:30:00,
2013-03-29 01:33:00,26.7,18.6,30.25,ESE,123,0.0,0.0,71,0.00,,,0.00,Wunderground v.1.13,2013-03-29 06:33:00,
2013-03-29 01:34:00,26.6,18.5,30.25,ESE,123,0.0,0.0,71,0.00,,,0.00,Wunderground v.1.13,2013-03-29 06:34:00,
2013-03-29 01:35:00,26.5,18.7,30.26,ESE,123,0.0,0.0,72,0.00,,,0.00,Wunderground v.1.13,2013-03-29 06:35:00,
2013-03-29 01:37:00,26.3,18.5,30.25,ESE,123,0.0,0.0,72,0.00,,,0.00,Wunderground v.1.13,2013-03-29 06:37:00,
2013-03-29 01:38:00,26.2,18.4,30.25,ESE,123,0.0,0.0,72,0.00,,,0.00,Wunderground v.1.13,2013-03-29 06:38:00,
2013-03-29 01:43:00,26.1,18.6,30.25,ESE,123,0.0,0.0,73,0.00,,,0.00,Wunderground v.1.13,2013-03-29 06:43:00,
2013-03-29 01:44:00,26.1,18.6,30.25,ESE,123,0.0,0.0,73,0.00,,,0.00,Wunderground v.1.13,2013-03-29 06:44:00,
2013-03-29 01:45:00,26.1,18.9,30.25,ESE,123,0.0,0.0,74,0.00,,,0.00,Wunderground v.1.13,2013-03-29 06:45:00,
2013-03-29 01:46:00,26.1,18.9,30.25,ESE,123,0.0,0.0,74,0.00,,,0.00,Wunderground v.1.13,2013-03-29 06:46:00,
2013-03-29 01:49:00,26.1,18.9,30.25,ESE,123,0.0,0.0,74,0.00,,,0.00,Wunderground v.1.13,2013-03-29 06:49:00,
2013-03-29 01:53:00,26.1,18.9,30.25,ESE,123,0.0,0.0,74,0.00,,,0.00,Wunderground v.1.13,2013-03-29 06:53:00,
2013-03-29 01:54:00,26.2,19.0,30.25,ESE,123,0.0,0.0,74,0.00,,,0.00,Wunderground v.1.13,2013-03-29 06:54:00,
2013-03-29 01:56:00,26.4,19.5,30.25,ESE,123,0.0,1.0,75,0.00,,,0.00,Wunderground v.1.13,2013-03-29 06:56:00,
2013-03-29 01:57:00,26.5,19.6,30.25,ESE,123,0.0,1.0,75,0.00,,,0.00,Wunderground v.1.13,2013-03-29 06:57:00,
2013-03-29 01:58:00,26.7,19.8,30.25,ESE,123,0.0,1.0,75,0.00,,,0.00,Wunderground v.1.13,2013-03-29 06:58:00,
2013-03-29 02:03:00,27.1,19.9,30.25,ESE,123,0.0,0.0,74,0.00,,,0.00,Wunderground v.1.13,2013-03-29 07:03:00,
2013-03-29 02:06:00,27.1,19.6,30.25,ESE,123,0.0,0.0,73,0.00,,,0.00,Wunderground v.1.13,2013-03-29 07:06:00,
2013-03-29 02:07:00,27.1,19.6,30.25,ESE,123,0.0,0.0,73,0.00,,,0.00,Wunderground v.1.13,2013-03-29 07:07:00,
2013-03-29 02:10:00,27.0,19.5,30.25,ESE,123,0.0,0.0,73,0.00,,,0.00,Wunderground v.1.13,2013-03-29 07:10:00,
2013-03-29 02:12:00,26.8,19.3,30.25,ESE,123,0.0,0.0,73,0.00,,,0.00,Wunderground v.1.13,2013-03-29 07:12:00,
2013-03-29 02:13:00,26.7,19.2,30.25,ESE,123,0.0,0.0,73,0.00,,,0.00,Wunderground v.1.13,2013-03-29 07:13:00,
2013-03-29 02:16:00,26.6,19.1,30.25,ESE,123,0.0,0.0,73,0.00,,,0.00,Wunderground v.1.13,2013-03-29 07:16:00,
2013-03-29 02:17:00,26.6,19.1,30.25,ESE,123,0.0,0.0,73,0.00,,,0.00,Wunderground v.1.13,2013-03-29 07:17:00,
2013-03-29 02:22:00,26.6,19.4,30.25,ESE,123,0.0,0.0,74,0.00,,,0.00,Wunderground v.1.13,2013-03-29 07:22:00,
2013-03-29 02:23:00,26.6,19.4,30.25,ESE,123,0.0,0.0,74,0.00,,,0.00,Wunderground v.1.13,2013-03-29 07:23:00,
2013-03-29 02:27:00,26.6,19.4,30.25,ESE,123,0.0,0.0,74,0.00,,,0.00,Wunderground v.1.13,2013-03-29 07:27:00,
2013-03-29 02:29:00,26.6,19.4,30.25,ESE,123,0.0,0.0,74,0.00,,,0.00,Wunderground v.1.13,2013-03-29 07:29:00,
2013-03-29 02:31:00,26.6,19.4,30.25,ESE,123,0.0,0.0,74,0.00,,,0.00,Wunderground v.1.13,2013-03-29 07:31:00,
2013-03-29 02:34:00,26.6,19.4,30.25,ESE,123,0.0,0.0,74,0.00,,,0.00,Wunderground v.1.13,2013-03-29 07:34:00,
2013-03-29 02:36:00,26.7,19.8,30.25,ESE,123,0.0,0.0,75,0.00,,,0.00,Wunderground v.1.13,2013-03-29 07:36:00,
2013-03-29 02:37:00,26.7,19.8,30.25,ESE,123,0.0,0.0,75,0.00,,,0.00,Wunderground v.1.13,2013-03-29 07:37:00,
2013-03-29 02:38:00,26.8,19.9,30.25,ESE,123,0.0,0.0,75,0.00,,,0.00,Wunderground v.1.13,2013-03-29 07:38:00,
2013-03-29 02:39:00,26.8,19.9,30.25,ESE,123,0.0,0.0,75,0.00,,,0.00,Wunderground v.1.13,2013-03-29 07:39:00,
2013-03-29 02:44:00,27.0,20.1,30.25,ESE,123,0.0,0.0,75,0.00,,,0.00,Wunderground v.1.13,2013-03-29 07:44:00,
2013-03-29 02:45:00,27.1,19.9,30.25,ESE,123,0.0,0.0,74,0.00,,,0.00,Wunderground v.1.13,2013-03-29 07:45:00,
2013-03-29 02:46:00,27.1,19.9,30.25,ESE,123,0.0,0.0,74,0.00,,,0.00,Wunderground v.1.13,2013-03-29 07:46:00,
2013-03-29 02:50:00,27.3,20.1,30.25,ESE,123,0.0,0.0,74,0.00,,,0.00,Wunderground v.1.13,2013-03-29 07:50:00,
2013-03-29 02:51:00,27.3,20.1,30.25,ESE,123,0.0,0.0,74,0.00,,,0.00,Wunderground v.1.13,2013-03-29 07:51:00,
2013-03-29 02:54:00,27.3,20.1,30.25,ESE,123,0.0,0.0,74,0.00,,,0.00,Wunderground v.1.13,2013-03-29 07:54:00,
2013-03-29 02:56:00,27.3,20.1,30.25,ESE,123,0.0,0.0,74,0.00,,,0.00,Wunderground v.1.13,2013-03-29 07:56:00,
2013-03-29 02:57:00,27.2,20.0,30.25,ESE,123,0.0,0.0,74,0.00,,,0.00,Wunderground v.1.13,2013-03-29 07:57:00,
2013-03-29 03:00:00,27.0,19.8,30.25,ESE,123,0.0,0.0,74,0.00,,,0.00,Wunderground v.1.13,2013-03-29 08:00:00,
2013-03-29 03:01:00,27.0,19.8,30.25,ESE,123,0.0,0.0,74,0.00,,,0.00,Wunderground v.1.13,2013-03-29 08:01:00,
2013-03-29 03:02:00,26.9,19.7,30.25,ESE,123,0.0,0.0,74,0.00,,,0.00,Wunderground v.1.13,2013-03-29 08:02:00,
2013-03-29 03:04:00,26.8,19.6,30.25,ESE,123,0.0,0.0,74,0.00,,,0.00,Wunderground v.1.13,2013-03-29 08:04:00,
2013-03-29 03:09:00,26.6,19.7,30.25,ESE,123,0.0,0.0,75,0.00,,,0.00,Wunderground v.1.13,2013-03-29 08:09:00,
2013-03-29 03:10:00,26.5,20.0,30.25,ESE,123,0.0,0.0,76,0.00,,,0.00,Wunderground v.1.13,2013-03-29 08:10:00,
2013-03-29 03:13:00,26.6,20.1,30.25,ESE,123,0.0,0.0,76,0.00,,,0.00,Wunderground v.1.13,2013-03-29 08:13:00,
2013-03-29 03:17:00,27.0,20.4,30.25,ESE,123,0.0,0.0,76,0.00,,,0.00,Wunderground v.1.13,2013-03-29 08:17:00,
2013-03-29 03:20:00,27.4,20.8,30.25,ESE,123,0.0,0.0,76,0.00,,,0.00,Wunderground v.1.13,2013-03-29 08:20:00,
2013-03-29 03:22:00,27.6,21.0,30.25,ESE,123,0.0,0.0,76,0.00,,,0.00,Wunderground v.1.13,2013-03-29 08:22:00,
2013-03-29 03:24:00,27.8,20.9,30.25,ESE,123,0.0,0.0,75,0.00,,,0.00,Wunderground v.1.13,2013-03-29 08:24:00,
2013-03-29 03:26:00,27.9,21.0,30.25,ESE,123,0.0,0.0,75,0.00,,,0.00,Wunderground v.1.13,2013-03-29 08:26:00,
2013-03-29 03:27:00,28.0,21.1,30.25,ESE,123,0.0,0.0,75,0.00,,,0.00,Wunderground v.1.13,2013-03-29 08:27:00,
2013-03-29 03:31:00,28.2,21.0,30.25,ESE,123,0.0,0.0,74,0.00,,,0.00,Wunderground v.1.13,2013-03-29 08:31:00,
2013-03-29 03:32:00,28.2,21.0,30.25,ESE,123,0.0,0.0,74,0.00,,,0.00,Wunderground v.1.13,2013-03-29 08:32:00,
2013-03-29 03:33:00,28.2,21.0,30.25,ESE,123,0.0,0.0,74,0.00,,,0.00,Wunderground v.1.13,2013-03-29 08:33:00,
2013-03-29 03:38:00,28.2,21.0,30.25,ESE,123,0.0,0.0,74,0.00,,,0.00,Wunderground v.1.13,2013-03-29 08:38:00,
2013-03-29 03:39:00,28.2,21.0,30.25,ESE,123,0.0,0.0,74,0.00,,,0.00,Wunderground v.1.13,2013-03-29 08:39:00,
2013-03-29 03:40:00,28.1,20.9,30.25,ESE,123,0.0,0.0,74,0.00,,,0.00,Wunderground v.1.13,2013-03-29 08:40:00,
2013-03-29 03:42:00,27.9,20.4,30.25,ESE,123,0.0,0.0,73,0.00,,,0.00,Wunderground v.1.13,2013-03-29 08:42:00,
2013-03-29 03:47:00,27.2,19.7,30.25,ESE,123,0.0,0.0,73,0.00,,,0.00,Wunderground v.1.13,2013-03-29 08:47:00,
2013-03-29 03:48:00,27.1,19.6,30.25,ESE,123,0.0,0.0,73,0.00,,,0.00,Wunderground v.1.13,2013-03-29 08:48:00,
2013-03-29 03:49:00,27.0,19.5,30.25,ESE,123,0.0,0.0,73,0.00,,,0.00,Wunderground v.1.13,2013-03-29 08:49:00,
2013-03-29 03:52:00,26.7,19.5,30.25,ESE,123,0.0,0.0,74,0.00,,,0.00,Wunderground v.1.13,2013-03-29 08:52:00,
2013-03-29 03:53:00,26.6,19.4,30.24,ESE,123,0.0,0.0,74,0.00,,,0.00,Wunderground v.1.13,2013-03-29 08:53:00,
2013-03-29 03:57:00,26.5,19.6,30.25,ESE,123,0.0,0.0,75,0.00,,,0.00,Wunderground v.1.13,2013-03-29 08:57:00,
2013-03-29 03:58:00,26.5,20.0,30.25,ESE,123,0.0,0.0,76,0.00,,,0.00,Wunderground v.1.13,2013-03-29 08:58:00,
2013-03-29 04:02:00,26.6,20.4,30.24,ESE,123,0.0,1.0,77,0.00,,,0.00,Wunderground v.1.13,2013-03-29 09:02:00,
2013-03-29 04:03:00,26.7,20.5,30.24,ESE,123,0.0,1.0,77,0.00,,,0.00,Wunderground v.1.13,2013-03-29 09:03:00,
2013-03-29 04:06:00,26.9,20.7,30.24,ESE,123,0.0,0.0,77,0.00,,,0.00,Wunderground v.1.13,2013-03-29 09:06:00,
2013-03-29 04:07:00,27.0,20.7,30.24,ESE,123,0.0,0.0,77,0.00,,,0.00,Wunderground v.1.13,2013-03-29 09:07:00,
2013-03-29 04:10:00,27.3,21.0,30.24,ESE,123,0.0,0.0,77,0.00,,,0.00,Wunderground v.1.13,2013-03-29 09:10:00,
2013-03-29 04:12:00,27.4,21.1,30.24,ESE,123,0.0,0.0,77,0.00,,,0.00,Wunderground v.1.13,2013-03-29 09:12:00,
2013-03-29 04:14:00,27.5,21.2,30.24,ESE,123,0.0,0.0,77,0.00,,,0.00,Wunderground v.1.13,2013-03-29 09:14:00,
2013-03-29 04:15:00,27.5,20.9,30.24,ESE,123,0.0,0.0,76,0.00,,,0.00,Wunderground v.1.13,2013-03-29 09:15:00,
2013-03-29 04:18:00,27.3,20.7,30.23,ESE,123,0.0,0.0,76,0.00,,,0.00,Wunderground v.1.13,2013-03-29 09:18:00,
2013-03-29 04:21:00,27.2,20.6,30.23,ESE,123,0.0,0.0,76,0.00,,,0.00,Wunderground v.1.13,2013-03-29 09:21:00,
2013-03-29 04:22:00,27.3,20.7,30.24,ESE,123,0.0,0.0,76,0.00,,,0.00,Wunderground v.1.13,2013-03-29 09:22:00,
2013-03-29 04:23:00,27.3,21.0,30.24,ESE,123,0.0,0.0,77,0.00,,,0.00,Wunderground v.1.13,2013-03-29 09:23:00,
2013-03-29 04:28:00,28.0,21.7,30.24,ESE,123,0.0,2.0,77,0.00,,,0.00,Wunderground v.1.13,2013-03-29 09:28:00,
2013-03-29 04:29:00,28.2,21.9,30.24,ESE,123,1.0,2.0,77,0.00,,,0.00,Wunderground v.1.13,2013-03-29 09:29:00,
2013-03-29 04:31:00,28.5,22.2,30.24,ESE,123,1.0,1.0,77,0.00,,,0.00,Wunderground v.1.13,2013-03-29 09:31:00,
2013-03-29 04:32:00,28.7,22.4,30.23,ESE,123,1.0,1.0,77,0.00,,,0.00,Wunderground v.1.13,2013-03-29 09:32:00,
2013-03-29 04:35:00,29.0,22.4,30.23,ESE,123,0.0,1.0,76,0.00,,,0.00,Wunderground v.1.13,2013-03-29 09:35:00,
2013-03-29 04:37:00,29.1,22.5,30.23,ESE,123,0.0,1.0,76,0.00,,,0.00,Wunderground v.1.13,2013-03-29 09:37:00,
2013-03-29 04:39:00,29.1,22.2,30.23,ESE,123,0.0,2.0,75,0.00,,,0.00,Wunderground v.1.13,2013-03-29 09:39:00,
2013-03-29 04:41:00,29.0,21.7,30.23,ESE,123,0.0,0.0,74,0.00,,,0.00,Wunderground v.1.13,2013-03-29 09:41:00,
2013-03-29 04:42:00,29.0,21.7,30.24,ESE,123,0.0,0.0,74,0.00,,,0.00,Wunderground v.1.13,2013-03-29 09:42:00,
2013-03-29 04:43:00,28.9,21.7,30.23,ESE,123,0.0,0.0,74,0.00,,,0.00,Wunderground v.1.13,2013-03-29 09:43:00,
2013-03-29 04:44:00,28.9,21.7,30.23,ESE,123,0.0,0.0,74,0.00,,,0.00,Wunderground v.1.13,2013-03-29 09:44:00,
2013-03-29 04:48:00,29.1,22.2,30.23,ESE,123,0.0,1.0,75,0.00,,,0.00,Wunderground v.1.13,2013-03-29 09:48:00,
2013-03-29 04:49:00,29.1,22.2,30.23,ESE,123,0.0,1.0,75,0.00,,,0.00,Wunderground v.1.13,2013-03-29 09:49:00,
2013-03-29 04:50:00,29.2,22.3,30.23,ESE,123,0.0,1.0,75,0.00,,,0.00,Wunderground v.1.13,2013-03-29 09:50:00,
2013-03-29 04:53:00,29.1,21.8,30.23,ESE,123,0.0,2.0,74,0.00,,,0.00,Wunderground v.1.13,2013-03-29 09:53:00,
2013-03-29 04:54:00,28.9,21.7,30.23,ESE,123,0.0,2.0,74,0.00,,,0.00,Wunderground v.1.13,2013-03-29 09:54:00,
2013-03-29 04:56:00,28.8,21.6,30.23,ESE,123,0.0,0.0,74,0.00,,,0.00,Wunderground v.1.13,2013-03-29 09:56:00,
2013-03-29 05:01:00,28.5,21.6,30.23,ESE,123,0.0,0.0,75,0.00,,,0.00,Wunderground v.1.13,2013-03-29 10:01:00,
2013-03-29 05:02:00,28.5,21.6,30.23,ESE,123,0.0,1.0,75,0.00,,,0.00,Wunderground v.1.13,2013-03-29 10:02:00,
2013-03-29 05:03:00,28.5,21.6,30.23,ESE,123,0.0,1.0,75,0.00,,,0.00,Wunderground v.1.13,2013-03-29 10:03:00,
2013-03-29 05:08:00,28.6,21.7,30.23,ESE,123,0.0,0.0,75,0.00,,,0.00,Wunderground v.1.13,2013-03-29 10:08:00,
2013-03-29 05:09:00,28.6,21.7,30.23,ESE,123,0.0,0.0,75,0.00,,,0.00,Wunderground v.1.13,2013-03-29 10:09:00,
2013-03-29 05:14:00,28.8,21.9,30.23,ESE,123,0.0,0.0,75,0.00,,,0.00,Wunderground v.1.13,2013-03-29 10:14:00,
2013-03-29 05:15:00,28.9,22.0,30.23,ESE,123,0.0,0.0,75,0.00,,,0.00,Wunderground v.1.13,2013-03-29 10:15:00,
2013-03-29 05:16:00,29.0,22.1,30.23,ESE,123,0.0,1.0,75,0.00,,,0.00,Wunderground v.1.13,2013-03-29 10:16:00,
2013-03-29 05:18:00,29.2,22.3,30.23,ESE,123,0.0,1.0,75,0.00,,,0.00,Wunderground v.1.13,2013-03-29 10:18:00,
2013-03-29 05:21:00,29.5,22.6,30.23,ESE,123,1.0,1.0,75,0.00,,,0.00,Wunderground v.1.13,2013-03-29 10:21:00,
2013-03-29 05:22:00,29.5,22.2,30.23,ESE,123,1.0,1.0,74,0.00,,,0.00,Wunderground v.1.13,2013-03-29 10:22:00,
2013-03-29 05:24:00,29.6,22.3,30.23,ESE,123,1.0,1.0,74,0.00,,,0.00,Wunderground v.1.13,2013-03-29 10:24:00,
2013-03-29 05:28:00,29.8,22.5,30.23,ESE,123,1.0,1.0,74,0.00,,,0.00,Wunderground v.1.13,2013-03-29 10:28:00,
2013-03-29 05:30:00,30.0,22.7,30.23,ESE,123,1.0,2.0,74,0.00,,,0.00,Wunderground v.1.13,2013-03-29 10:30:00,
2013-03-29 05:31:00,30.0,22.7,30.23,ESE,123,1.0,2.0,74,0.00,,,0.00,Wunderground v.1.13,2013-03-29 10:31:00,
2013-03-29 05:33:00,30.0,22.4,30.23,ESE,123,2.0,2.0,73,0.00,,,0.00,Wunderground v.1.13,2013-03-29 10:33:00,
2013-03-29 05:34:00,30.1,22.5,30.23,ESE,123,2.0,2.0,73,0.00,,,0.00,Wunderground v.1.13,2013-03-29 10:34:00,
2013-03-29 05:38:00,30.1,22.5,30.23,ESE,123,2.0,2.0,73,0.00,,,0.00,Wunderground v.1.13,2013-03-29 10:38:00,
2013-03-29 05:42:00,30.2,22.6,30.23,ESE,123,1.0,1.0,73,0.00,,,0.00,Wunderground v.1.13,2013-03-29 10:42:00,
2013-03-29 05:43:00,30.2,22.3,30.23,ESE,123,1.0,1.0,72,0.00,,,0.00,Wunderground v.1.13,2013-03-29 10:43:00,
2013-03-29 05:46:00,30.3,22.4,30.23,ESE,123,0.0,0.0,72,0.00,,,0.00,Wunderground v.1.13,2013-03-29 10:46:00,
2013-03-29 05:47:00,30.3,22.4,30.23,ESE,123,0.0,0.0,72,0.00,,,0.00,Wunderground v.1.13,2013-03-29 10:47:00,
2013-03-29 05:48:00,30.3,22.4,30.23,ESE,123,0.0,0.0,72,0.00,,,0.00,Wunderground v.1.13,2013-03-29 10:48:00,
2013-03-29 05:53:00,29.8,22.2,30.23,ESE,123,1.0,2.0,73,0.00,,,0.00,Wunderground v.1.13,2013-03-29 10:53:00,
2013-03-29 05:55:00,29.6,22.0,30.23,ESE,123,1.0,1.0,73,0.00,,,0.00,Wunderground v.1.13,2013-03-29 10:55:00,
2013-03-29 06:00:00,29.3,22.0,30.23,ESE,123,1.0,1.0,74,0.00,,,0.00,Wunderground v.1.13,2013-03-29 11:00:00,
2013-03-29 06:01:00,29.2,21.9,30.23,ESE,123,1.0,1.0,74,0.00,,,0.00,Wunderground v.1.13,2013-03-29 11:01:00,
2013-03-29 06:07:00,29.1,21.8,30.23,ESE,123,0.0,1.0,74,0.00,,,0.00,Wunderground v.1.13,2013-03-29 11:07:00,
2013-03-29 06:08:00,29.1,21.8,30.23,ESE,123,0.0,1.0,74,0.00,,,0.00,Wunderground v.1.13,2013-03-29 11:08:00,
2013-03-29 06:10:00,29.2,21.9,30.23,ESE,123,1.0,1.0,74,0.00,,,0.00,Wunderground v.1.13,2013-03-29 11:10:00,
2013-03-29 06:12:00,29.1,21.8,30.23,ESE,123,1.0,1.0,74,0.00,,,0.00,Wunderground v.1.13,2013-03-29 11:12:00,
2013-03-29 06:16:00,29.1,21.8,30.23,ESE,123,0.0,1.0,74,0.00,,,0.00,Wunderground v.1.13,2013-03-29 11:16:00,
2013-03-29 06:19:00,29.1,21.8,30.23,ESE,123,0.0,2.0,74,0.00,,,0.00,Wunderground v.1.13,2013-03-29 11:19:00,
2013-03-29 06:20:00,29.1,21.8,30.23,ESE,123,1.0,2.0,74,0.00,,,0.00,Wunderground v.1.13,2013-03-29 11:20:00,
2013-03-29 06:25:00,29.1,21.8,30.23,ESE,123,1.0,1.0,74,0.00,,,0.00,Wunderground v.1.13,2013-03-29 11:25:00,
2013-03-29 06:26:00,29.2,21.9,30.23,ESE,123,1.0,2.0,74,0.00,,,0.00,Wunderground v.1.13,2013-03-29 11:26:00,
2013-03-29 06:27:00,29.2,21.9,30.23,ESE,123,1.0,2.0,74,0.00,,,0.00,Wunderground v.1.13,2013-03-29 11:27:00,
2013-03-29 06:31:00,28.8,21.6,30.23,ESE,123,1.0,1.0,74,0.00,,,0.00,Wunderground v.1.13,2013-03-29 11:31:00,
2013-03-29 06:32:00,28.7,21.5,30.23,ESE,123,1.0,1.0,74,0.00,,,0.00,Wunderground v.1.13,2013-03-29 11:32:00,
2013-03-29 06:37:00,28.2,21.6,30.23,ESE,123,1.0,4.0,76,0.00,,,0.00,Wunderground v.1.13,2013-03-29 11:37:00,
2013-03-29 06:38:00,28.2,21.6,30.23,ESE,123,1.0,4.0,76,0.00,,,0.00,Wunderground v.1.13,2013-03-29 11:38:00,
2013-03-29 06:40:00,28.1,21.5,30.23,ESE,123,1.0,1.0,76,0.00,,,0.00,Wunderground v.1.13,2013-03-29 11:40:00,
2013-03-29 06:43:00,28.0,21.4,30.23,ESE,123,2.0,4.0,76,0.00,,,0.00,Wunderground v.1.13,2013-03-29 11:43:00,
2013-03-29 06:46:00,28.1,21.5,30.23,ESE,123,2.0,2.0,76,0.00,,,0.00,Wunderground v.1.13,2013-03-29 11:46:00,
2013-03-29 06:47:00,28.1,21.5,30.23,ESE,123,2.0,2.0,76,0.00,,,0.00,Wunderground v.1.13,2013-03-29 11:47:00,
2013-03-29 06:49:00,28.1,21.2,30.23,ESE,123,2.0,4.0,75,0.00,,,0.00,Wunderground v.1.13,2013-03-29 11:49:00,
2013-03-29 06:51:00,28.1,21.2,30.23,ESE,123,2.0,3.0,75,0.00,,,0.00,Wunderground v.1.13,2013-03-29 11:51:00,
2013-03-29 06:52:00,28.1,21.2,30.23,ESE,123,2.0,3.0,75,0.00,,,0.00,Wunderground v.1.13,2013-03-29 11:52:00,
2013-03-29 06:53:00,28.1,21.2,30.23,ESE,123,2.0,3.0,75,0.00,,,0.00,Wunderground v.1.13,2013-03-29 11:53:00,
2013-03-29 06:57:00,28.0,21.1,30.23,ESE,123,2.0,2.0,75,0.00,,,0.00,Wunderground v.1.13,2013-03-29 11:57:00,
2013-03-29 06:59:00,28.1,21.2,30.23,ESE,123,2.0,2.0,75,0.00,,,0.00,Wunderground v.1.13,2013-03-29 11:59:00,
2013-03-29 07:02:00,28.3,21.4,30.23,ESE,123,1.0,2.0,75,0.00,,,0.00,Wunderground v.1.13,2013-03-29 12:02:00,
2013-03-29 07:05:00,28.5,21.6,30.23,ESE,123,1.0,1.0,75,0.00,,,0.00,Wunderground v.1.13,2013-03-29 12:05:00,
2013-03-29 07:08:00,28.7,21.5,30.24,ESE,123,1.0,1.0,74,0.00,,,0.00,Wunderground v.1.13,2013-03-29 12:08:00,
2013-03-29 07:10:00,28.8,21.6,30.24,ESE,123,1.0,1.0,74,0.00,,,0.00,Wunderground v.1.13,2013-03-29 12:10:00,
2013-03-29 07:15:00,29.0,21.7,30.24,ESE,123,1.0,1.0,74,0.00,,,0.00,Wunderground v.1.13,2013-03-29 12:15:00,
2013-03-29 07:18:00,29.1,21.5,30.23,ESE,123,1.0,2.0,73,0.00,,,0.00,Wunderground v.1.13,2013-03-29 12:18:00,
2013-03-29 07:20:00,29.1,21.5,30.23,ESE,123,1.0,1.0,73,0.00,,,0.00,Wunderground v.1.13,2013-03-29 12:20:00,
2013-03-29 07:21:00,29.0,21.4,30.23,ESE,123,1.0,1.0,73,0.00,,,0.00,Wunderground v.1.13,2013-03-29 12:21:00,
2013-03-29 07:22:00,29.0,21.4,30.23,ESE,123,1.0,1.0,73,0.00,,,0.00,Wunderground v.1.13,2013-03-29 12:22:00,
2013-03-29 07:25:00,29.0,21.7,30.23,ESE,123,1.0,1.0,74,0.00,,,0.00,Wunderground v.1.13,2013-03-29 12:25:00,
2013-03-29 07:28:00,29.1,21.8,30.24,ESE,123,1.0,1.0,74,0.00,,,0.00,Wunderground v.1.13,2013-03-29 12:28:00,
2013-03-29 07:31:00,29.3,21.7,30.24,ESE,123,1.0,1.0,73,0.00,,,0.00,Wunderground v.1.13,2013-03-29 12:31:00,
2013-03-29 07:33:00,29.5,21.9,30.24,ESE,123,0.0,1.0,73,0.00,,,0.00,Wunderground v.1.13,2013-03-29 12:33:00,
2013-03-29 07:37:00,29.6,22.0,30.24,ESE,123,1.0,1.0,73,0.00,,,0.00,Wunderground v.1.13,2013-03-29 12:37:00,
2013-03-29 07:38:00,29.7,22.1,30.23,ESE,123,1.0,1.0,73,0.00,,,0.00,Wunderground v.1.13,2013-03-29 12:38:00,
2013-03-29 07:40:00,29.8,22.2,30.23,ESE,123,1.0,1.0,73,0.00,,,0.00,Wunderground v.1.13,2013-03-29 12:40:00,
2013-03-29 07:44:00,29.9,22.0,30.23,ESE,123,1.0,1.0,72,0.00,,,0.00,Wunderground v.1.13,2013-03-29 12:44:00,
2013-03-29 07:45:00,29.9,22.0,30.23,ESE,123,1.0,1.0,72,0.00,,,0.00,Wunderground v.1.13,2013-03-29 12:45:00,
2013-03-29 07:47:00,29.9,22.0,30.23,ESE,123,1.0,3.0,72,0.00,,,0.00,Wunderground v.1.13,2013-03-29 12:47:00,
2013-03-29 07:50:00,30.0,22.4,30.23,ESE,123,2.0,5.0,73,0.00,,,0.00,Wunderground v.1.13,2013-03-29 12:50:00,
2013-03-29 07:52:00,30.0,22.4,30.23,East,101,3.0,5.0,73,0.00,,,0.00,Wunderground v.1.13,2013-03-29 12:52:00,
2013-03-29 07:54:00,30.2,22.6,30.23,East,80,3.0,5.0,73,0.00,,,0.00,Wunderground v.1.13,2013-03-29 12:54:00,
2013-03-29 07:57:00,30.4,22.8,30.24,East,90,3.0,5.0,73,0.00,,,0.00,Wunderground v.1.13,2013-03-29 12:57:00,
2013-03-29 08:00:00,30.6,23.0,30.23,ENE,62,3.0,3.0,73,0.00,,,0.00,Wunderground v.1.13,2013-03-29 13:00:00,
2013-03-29 08:04:00,30.7,23.1,30.24,ENE,65,3.0,4.0,73,0.00,,,0.00,Wunderground v.1.13,2013-03-29 13:04:00,
2013-03-29 08:06:00,30.8,23.2,30.24,ENE,64,3.0,5.0,73,0.00,,,0.00,Wunderground v.1.13,2013-03-29 13:06:00,
2013-03-29 08:07:00,30.8,23.2,30.24,ENE,65,3.0,5.0,73,0.00,,,0.00,Wunderground v.1.13,2013-03-29 13:07:00,
2013-03-29 08:12:00,31.3,23.3,30.24,ENE,71,3.0,3.0,72,0.00,,,0.00,Wunderground v.1.13,2013-03-29 13:12:00,
2013-03-29 08:13:00,31.3,23.3,30.24,ENE,75,3.0,5.0,72,0.00,,,0.00,Wunderground v.1.13,2013-03-29 13:13:00,
2013-03-29 08:14:00,31.5,23.5,30.24,East,99,3.0,5.0,72,0.00,,,0.00,Wunderground v.1.13,2013-03-29 13:14:00,
2013-03-29 08:18:00,31.8,23.5,30.24,ESE,103,3.0,5.0,71,0.00,,,0.00,Wunderground v.1.13,2013-03-29 13:18:00,
2013-03-29 08:19:00,31.9,23.6,30.24,ESE,103,3.0,6.0,71,0.00,,,0.00,Wunderground v.1.13,2013-03-29 13:19:00,
2013-03-29 08:20:00,31.9,23.6,30.24,ESE,105,3.0,6.0,71,0.00,,,0.00,Wunderground v.1.13,2013-03-29 13:20:00,
2013-03-29 08:21:00,31.9,23.6,30.24,East,95,3.0,6.0,71,0.00,,,0.00,Wunderground v.1.13,2013-03-29 13:21:00,
2013-03-29 08:24:00,32.1,23.4,30.23,SE,132,3.0,7.0,70,0.00,,,0.00,Wunderground v.1.13,2013-03-29 13:24:00,
2013-03-29 08:26:00,32.2,23.5,30.24,ESE,117,4.0,5.0,70,0.00,,,0.00,Wunderground v.1.13,2013-03-29 13:26:00,
2013-03-29 08:31:00,32.3,23.6,30.24,ESE,123,5.0,5.0,70,0.00,,,0.00,Wunderground v.1.13,2013-03-29 13:31:00,
2013-03-29 08:32:00,32.3,23.6,30.24,ESE,105,5.0,7.0,70,0.00,,,0.00,Wunderground v.1.13,2013-03-29 13:32:00,
2013-03-29 08:35:00,32.4,24.0,30.23,ESE,114,5.0,5.0,71,0.00,,,0.00,Wunderground v.1.13,2013-03-29 13:35:00,
2013-03-29 08:38:00,32.5,23.8,30.23,ESE,102,4.0,6.0,70,0.00,,,0.00,Wunderground v.1.13,2013-03-29 13:38:00,
2013-03-29 08:42:00,32.7,24.0,30.23,ESE,111,5.0,8.0,70,0.00,,,0.00,Wunderground v.1.13,2013-03-29 13:42:00,
2013-03-29 08:45:00,32.9,23.8,30.23,ESE,119,5.0,7.0,69,0.00,,,0.00,Wunderground v.1.13,2013-03-29 13:45:00,
2013-03-29 08:47:00,33.0,23.9,30.23,ESE,114,6.0,7.0,69,0.00,,,0.00,Wunderground v.1.13,2013-03-29 13:47:00,
2013-03-29 08:49:00,33.1,24.0,30.23,SE,128,6.0,7.0,69,0.00,,,0.00,Wunderground v.1.13,2013-03-29 13:49:00,
2013-03-29 08:50:00,33.2,24.1,30.23,ESE,122,6.0,6.0,69,0.00,,,0.00,Wunderground v.1.13,2013-03-29 13:50:00,
2013-03-29 08:53:00,33.3,24.2,30.23,ESE,119,6.0,6.0,69,0.00,,,0.00,Wunderground v.1.13,2013-03-29 13:53:00,
2013-03-29 08:55:00,33.5,24.4,30.23,ESE,113,6.0,6.0,69,0.00,,,0.00,Wunderground v.1.13,2013-03-29 13:55:00,
2013-03-29 08:59:00,33.7,24.6,30.23,ESE,123,6.0,9.0,69,0.00,,,0.00,Wunderground v.1.13,2013-03-29 13:59:00,
2013-03-29 09:00:00,33.8,24.7,30.23,ESE,118,6.0,7.0,69,0.00,,,0.00,Wunderground v.1.13,2013-03-29 14:00:00,
2013-03-29 09:01:00,33.8,24.4,30.23,ESE,114,6.0,7.0,68,0.00,,,0.00,Wunderground v.1.13,2013-03-29 14:01:00,
2013-03-29 09:05:00,34.0,24.5,30.23,SE,126,6.0,6.0,68,0.00,,,0.00,Wunderground v.1.13,2013-03-29 14:05:00,
2013-03-29 09:07:00,34.0,24.9,30.24,SE,126,6.0,6.0,69,0.00,,,0.00,Wunderground v.1.13,2013-03-29 14:07:00,
2013-03-29 09:08:00,34.0,24.9,30.24,ESE,122,6.0,6.0,69,0.00,,,0.00,Wunderground v.1.13,2013-03-29 14:08:00,
2013-03-29 09:09:00,34.1,25.0,30.24,ESE,122,6.0,8.0,69,0.00,,,0.00,Wunderground v.1.13,2013-03-29 14:09:00,
2013-03-29 09:10:00,34.1,25.0,30.23,ESE,123,6.0,8.0,69,0.00,,,0.00,Wunderground v.1.13,2013-03-29 14:10:00,
2013-03-29 09:14:00,34.2,24.7,30.24,SE,130,6.0,10.0,68,0.00,,,0.00,Wunderground v.1.13,2013-03-29 14:14:00,
2013-03-29 09:15:00,34.2,24.7,30.24,ESE,121,6.0,7.0,68,0.00,,,0.00,Wunderground v.1.13,2013-03-29 14:15:00,
2013-03-29 09:17:00,34.2,24.7,30.23,SE,126,7.0,7.0,68,0.00,,,0.00,Wunderground v.1.13,2013-03-29 14:17:00,
2013-03-29 09:18:00,34.2,25.1,30.23,ESE,123,7.0,7.0,69,0.00,,,0.00,Wunderground v.1.13,2013-03-29 14:18:00,
2013-03-29 09:24:00,34.6,25.1,30.23,SE,130,7.0,9.0,68,0.00,,,0.00,Wunderground v.1.13,2013-03-29 14:24:00,
2013-03-29 09:28:00,34.6,25.1,30.23,ESE,119,7.0,7.0,68,0.00,,,0.00,Wunderground v.1.13,2013-03-29 14:28:00,
2013-03-29 09:30:00,34.8,25.7,30.23,ESE,123,7.0,8.0,69,0.00,,,0.00,Wunderground v.1.13,2013-03-29 14:30:00,
2013-03-29 09:33:00,34.8,25.3,30.23,ESE,123,8.0,10.0,68,0.00,,,0.00,Wunderground v.1.13,2013-03-29 14:33:00,
2013-03-29 09:35:00,34.8,25.3,30.23,ESE,116,8.0,8.0,68,0.00,,,0.00,Wunderground v.1.13,2013-03-29 14:35:00,
2013-03-29 09:38:00,34.8,25.7,30.23,ESE,123,8.0,8.0,69,0.00,,,0.00,Wunderground v.1.13,2013-03-29 14:38:00,
2013-03-29 09:39:00,34.8,25.3,30.23,SE,126,8.0,10.0,68,0.00,,,0.00,Wunderground v.1.13,2013-03-29 14:39:00,
2013-03-29 09:45:00,35.0,25.1,30.23,ESE,115,8.0,8.0,67,0.00,,,0.00,Wunderground v.1.13,2013-03-29 14:45:00,
2013-03-29 09:46:00,35.1,25.6,30.23,ESE,115,8.0,8.0,68,0.00,,,0.00,Wunderground v.1.13,2013-03-29 14:46:00,
2013-03-29 09:51:00,35.2,25.3,30.23,ESE,115,7.0,10.0,67,0.00,,,0.00,Wunderground v.1.13,2013-03-29 14:51:00,
2013-03-29 09:52:00,35.3,25.4,30.23,SE,125,7.0,10.0,67,0.00,,,0.00,Wunderground v.1.13,2013-03-29 14:52:00,
2013-03-29 09:56:00,35.4,25.5,30.23,ESE,115,7.0,8.0,67,0.00,,,0.00,Wunderground v.1.13,2013-03-29 14:56:00,
2013-03-29 09:57:00,35.4,25.5,30.23,ESE,118,7.0,8.0,67,0.00,,,0.00,Wunderground v.1.13,2013-03-29 14:57:00,
2013-03-29 09:58:00,35.5,25.6,30.23,ESE,122,7.0,8.0,67,0.00,,,0.00,Wunderground v.1.13,2013-03-29 14:58:00,
2013-03-29 09:59:00,35.5,25.6,30.23,ESE,123,7.0,8.0,67,0.00,,,0.00,Wunderground v.1.13,2013-03-29 14:59:00,
2013-03-29 10:03:00,35.7,25.8,30.23,ESE,122,7.0,8.0,67,0.00,,,0.00,Wunderground v.1.13,2013-03-29 15:03:00,
2013-03-29 10:08:00,35.9,26.0,30.23,SE,126,8.0,9.0,67,0.00,,,0.00,Wunderground v.1.13,2013-03-29 15:08:00,
2013-03-29 10:09:00,36.0,25.7,30.23,ESE,119,8.0,10.0,66,0.00,,,0.00,Wunderground v.1.13,2013-03-29 15:09:00,
2013-03-29 10:10:00,36.1,26.2,30.23,ESE,115,8.0,8.0,67,0.00,,,0.00,Wunderground v.1.13,2013-03-29 15:10:00,
2013-03-29 10:14:00,36.4,26.1,30.23,ESE,122,8.0,8.0,66,0.00,,,0.00,Wunderground v.1.13,2013-03-29 15:14:00,
2013-03-29 10:15:00,36.5,26.2,30.23,ESE,123,7.0,7.0,66,0.00,,,0.00,Wunderground v.1.13,2013-03-29 15:15:00,
2013-03-29 10:17:00,36.6,26.3,30.23,SE,124,7.0,7.0,66,0.00,,,0.00,Wunderground v.1.13,2013-03-29 15:17:00,
2013-03-29 10:22:00,36.9,26.6,30.22,ESE,119,7.0,7.0,66,0.00,,,0.00,Wunderground v.1.13,2013-03-29 15:22:00,
2013-03-29 10:23:00,37.0,26.3,30.22,ESE,120,7.0,7.0,65,0.00,,,0.00,Wunderground v.1.13,2013-03-29 15:23:00,
2013-03-29 10:28:00,37.5,26.8,30.22,SE,126,7.0,11.0,65,0.00,,,0.00,Wunderground v.1.13,2013-03-29 15:28:00,
2013-03-29 10:29:00,37.5,26.8,30.22,ESE,119,7.0,11.0,65,0.00,,,0.00,Wunderground v.1.13,2013-03-29 15:29:00,
2013-03-29 10:30:00,37.5,26.8,30.22,SE,128,7.0,7.0,65,0.00,,,0.00,Wunderground v.1.13,2013-03-29 15:30:00,
2013-03-29 10:31:00,37.5,26.8,30.22,SE,126,7.0,7.0,65,0.00,,,0.00,Wunderground v.1.13,2013-03-29 15:31:00,
2013-03-29 10:34:00,37.8,27.1,30.22,ESE,123,7.0,7.0,65,0.00,,,0.00,Wunderground v.1.13,2013-03-29 15:34:00,
2013-03-29 10:37:00,38.1,27.4,30.22,ESE,123,6.0,7.0,65,0.00,,,0.00,Wunderground v.1.13,2013-03-29 15:37:00,
2013-03-29 10:38:00,38.1,27.0,30.22,ESE,123,6.0,8.0,64,0.00,,,0.00,Wunderground v.1.13,2013-03-29 15:38:00,
2013-03-29 10:42:00,38.6,27.1,30.22,ESE,121,6.0,10.0,63,0.00,,,0.00,Wunderground v.1.13,2013-03-29 15:42:00,
2013-03-29 10:43:00,38.8,27.3,30.22,SE,128,6.0,12.0,63,0.00,,,0.00,Wunderground v.1.13,2013-03-29 15:43:00,
2013-03-29 10:44:00,38.8,27.3,30.22,SE,126,7.0,12.0,63,0.00,,,0.00,Wunderground v.1.13,2013-03-29 15:44:00,
2013-03-29 10:47:00,38.9,27.4,30.22,ESE,123,7.0,10.0,63,0.00,,,0.00,Wunderground v.1.13,2013-03-29 15:47:00,
2013-03-29 10:50:00,39.3,27.7,30.22,SE,125,8.0,8.0,63,0.00,,,0.00,Wunderground v.1.13,2013-03-29 15:50:00,
2013-03-29 10:52:00,39.6,28.0,30.22,SSE,150,8.0,11.0,63,0.00,,,0.00,Wunderground v.1.13,2013-03-29 15:52:00,
2013-03-29 10:56:00,39.8,27.8,30.21,SE,125,8.0,8.0,62,0.00,,,0.00,Wunderground v.1.13,2013-03-29 15:56:00,
2013-03-29 10:58:00,39.8,27.8,30.21,SSW,209,8.0,12.0,62,0.00,,,0.00,Wunderground v.1.13,2013-03-29 15:58:00,
2013-03-29 10:59:00,39.9,27.9,30.21,SE,125,7.0,12.0,62,0.00,,,0.00,Wunderground v.1.13,2013-03-29 15:59:00,
2013-03-29 11:01:00,40.0,28.0,30.21,ESE,121,7.0,7.0,62,0.00,,,0.00,Wunderground v.1.13,2013-03-29 16:01:00,
2013-03-29 11:02:00,40.0,28.4,30.22,ESE,119,7.0,7.0,63,0.00,,,0.00,Wunderground v.1.13,2013-03-29 16:02:00,
2013-03-29 11:04:00,39.9,27.9,30.22,SE,134,7.0,8.0,62,0.00,,,0.00,Wunderground v.1.13,2013-03-29 16:04:00,
2013-03-29 11:07:00,39.7,27.7,30.22,SE,124,7.0,9.0,62,0.00,,,0.00,Wunderground v.1.13,2013-03-29 16:07:00,
2013-03-29 11:08:00,39.7,27.7,30.22,ESE,120,7.0,9.0,62,0.00,,,0.00,Wunderground v.1.13,2013-03-29 16:08:00,
2013-03-29 11:09:00,39.6,28.0,30.22,ESE,123,7.0,9.0,63,0.00,,,0.00,Wunderground v.1.13,2013-03-29 16:09:00,
2013-03-29 11:10:00,39.6,28.0,30.22,SE,126,8.0,8.0,63,0.00,,,0.00,Wunderground v.1.13,2013-03-29 16:10:00,
2013-03-29 11:15:00,39.7,28.1,30.21,ESE,123,8.0,10.0,63,0.00,,,0.00,Wunderground v.1.13,2013-03-29 16:15:00,
2013-03-29 11:16:00,39.7,28.1,30.21,ESE,122,8.0,10.0,63,0.00,,,0.00,Wunderground v.1.13,2013-03-29 16:16:00,
2013-03-29 11:20:00,39.8,28.2,30.21,SE,124,8.0,11.0,63,0.00,,,0.00,Wunderground v.1.13,2013-03-29 16:20:00,
2013-03-29 11:21:00,39.7,28.1,30.21,SE,129,8.0,12.0,63,0.00,,,0.00,Wunderground v.1.13,2013-03-29 16:21:00,
2013-03-29 11:22:00,39.7,28.1,30.21,SE,125,7.0,12.0,63,0.00,,,0.00,Wunderground v.1.13,2013-03-29 16:22:00,
2013-03-29 11:27:00,40.4,28.4,30.21,ESE,119,8.0,8.0,62,0.00,,,0.00,Wunderground v.1.13,2013-03-29 16:27:00,
2013-03-29 11:29:00,40.7,28.3,30.21,ESE,119,8.0,10.0,61,0.00,,,0.00,Wunderground v.1.13,2013-03-29 16:29:00,
2013-03-29 11:31:00,41.0,28.2,30.21,SE,127,8.0,9.0,60,0.00,,,0.00,Wunderground v.1.13,2013-03-29 16:31:00,
2013-03-29 11:33:00,41.0,28.6,30.21,SE,128,7.0,9.0,61,0.00,,,0.00,Wunderground v.1.13,2013-03-29 16:33:00,
2013-03-29 11:36:00,40.9,28.5,30.21,ESE,122,7.0,10.0,61,0.00,,,0.00,Wunderground v.1.13,2013-03-29 16:36:00,
2013-03-29 11:39:00,40.8,28.4,30.21,ESE,119,7.0,10.0,61,0.00,,,0.00,Wunderground v.1.13,2013-03-29 16:39:00,
2013-03-29 11:40:00,40.9,28.9,30.21,ESE,123,7.0,7.0,62,0.00,,,0.00,Wunderground v.1.13,2013-03-29 16:40:00,
2013-03-29 11:42:00,41.0,29.0,30.21,ESE,117,7.0,7.0,62,0.00,,,0.00,Wunderground v.1.13,2013-03-29 16:42:00,
2013-03-29 11:47:00,41.4,28.9,30.20,ESE,119,7.0,10.0,61,0.00,,,0.00,Wunderground v.1.13,2013-03-29 16:47:00,
2013-03-29 11:49:00,41.6,29.1,30.20,ESE,120,7.0,10.0,61,0.00,,,0.00,Wunderground v.1.13,2013-03-29 16:49:00,
2013-03-29 11:53:00,41.7,29.2,30.20,ESE,123,6.0,7.0,61,0.00,,,0.00,Wunderground v.1.13,2013-03-29 16:53:00,
2013-03-29 11:54:00,41.7,29.2,30.20,ESE,122,6.0,7.0,61,0.00,,,0.00,Wunderground v.1.13,2013-03-29 16:54:00,
2013-03-29 11:58:00,41.7,29.2,30.20,ESE,122,7.0,8.0,61,0.00,,,0.00,Wunderground v.1.13,2013-03-29 16:58:00,
2013-03-29 11:59:00,41.7,29.2,30.20,ESE,119,7.0,11.0,61,0.00,,,0.00,Wunderground v.1.13,2013-03-29 16:59:00,
2013-03-29 12:02:00,42.3,29.4,30.20,ESE,123,7.0,12.0,60,0.00,,,0.00,Wunderground v.1.13,2013-03-29 17:02:00,
2013-03-29 12:03:00,42.4,29.1,30.20,ESE,123,7.0,12.0,59,0.00,,,0.00,Wunderground v.1.13,2013-03-29 17:03:00,
2013-03-29 12:05:00,42.7,29.4,30.20,ESE,123,8.0,8.0,59,0.00,,,0.00,Wunderground v.1.13,2013-03-29 17:05:00,
2013-03-29 12:07:00,42.9,29.5,30.20,SE,125,8.0,8.0,59,0.00,,,0.00,Wunderground v.1.13,2013-03-29 17:07:00,
2013-03-29 12:10:00,43.1,29.7,30.20,SE,128,7.0,7.0,59,0.00,,,0.00,Wunderground v.1.13,2013-03-29 17:10:00,
2013-03-29 12:12:00,43.0,30.1,30.20,SE,130,7.0,7.0,60,0.00,,,0.00,Wunderground v.1.13,2013-03-29 17:12:00,
2013-03-29 12:17:00,43.9,30.1,30.20,South,183,6.0,9.0,58,0.00,,,0.00,Wunderground v.1.13,2013-03-29 17:17:00,
2013-03-29 12:18:00,44.0,30.2,30.20,ESE,116,6.0,9.0,58,0.00,,,0.00,Wunderground v.1.13,2013-03-29 17:18:00,
2013-03-29 12:19:00,44.2,30.3,30.20,SE,132,6.0,9.0,58,0.00,,,0.00,Wunderground v.1.13,2013-03-29 17:19:00,
2013-03-29 12:24:00,44.9,30.6,30.19,SE,128,5.0,8.0,57,0.00,,,0.00,Wunderground v.1.13,2013-03-29 17:24:00,
2013-03-29 12:25:00,44.9,30.1,30.19,ESE,114,5.0,8.0,56,0.00,,,0.00,Wunderground v.1.13,2013-03-29 17:25:00,
2013-03-29 12:30:00,45.3,30.1,30.19,SE,125,5.0,7.0,55,0.00,,,0.00,Wunderground v.1.13,2013-03-29 17:30:00,
2013-03-29 12:31:00,45.3,30.1,30.19,ESE,118,5.0,7.0,55,0.00,,,0.00,Wunderground v.1.13,2013-03-29 17:31:00,
2013-03-29 12:32:00,45.1,29.9,30.19,SE,126,5.0,7.0,55,0.00,,,0.00,Wunderground v.1.13,2013-03-29 17:32:00,
2013-03-29 12:37:00,44.8,30.0,30.19,SE,125,6.0,10.0,56,0.00,,,0.00,Wunderground v.1.13,2013-03-29 17:37:00,
2013-03-29 12:38:00,44.7,30.0,30.19,ESE,121,7.0,10.0,56,0.00,,,0.00,Wunderground v.1.13,2013-03-29 17:38:00,
2013-03-29 12:41:00,44.4,29.7,30.19,SE,125,7.0,8.0,56,0.00,,,0.00,Wunderground v.1.13,2013-03-29 17:41:00,
2013-03-29 12:42:00,44.5,30.2,30.19,SSE,153,7.0,8.0,57,0.00,,,0.00,Wunderground v.1.13,2013-03-29 17:42:00,
2013-03-29 12:44:00,45.0,30.7,30.19,SE,130,6.0,8.0,57,0.00,,,0.00,Wunderground v.1.13,2013-03-29 17:44:00,
2013-03-29 12:49:00,44.5,29.8,30.19,SE,144,6.0,10.0,56,0.00,,,0.00,Wunderground v.1.13,2013-03-29 17:49:00,
2013-03-29 12:50:00,44.3,29.6,30.19,SE,125,6.0,14.0,56,0.00,,,0.00,Wunderground v.1.13,2013-03-29 17:50:00,
2013-03-29 12:54:00,43.5,29.7,30.19,SE,127,8.0,14.0,58,0.00,,,0.00,Wunderground v.1.13,2013-03-29 17:54:00,
2013-03-29 12:55:00,43.6,29.8,30.19,SE,126,8.0,14.0,58,0.00,,,0.00,Wunderground v.1.13,2013-03-29 17:55:00,
2013-03-29 12:56:00,43.7,29.9,30.19,SE,126,8.0,14.0,58,0.00,,,0.00,Wunderground v.1.13,2013-03-29 17:56:00,
2013-03-29 12:58:00,43.6,29.8,30.19,ESE,121,8.0,14.0,58,0.00,,,0.00,Wunderground v.1.13,2013-03-29 17:58:00,
2013-03-29 13:01:00,44.0,30.2,30.19,ESE,118,9.0,9.0,58,0.00,,,0.00,Wunderground v.1.13,2013-03-29 18:01:00,
2013-03-29 13:04:00,43.8,30.0,30.19,SE,124,8.0,9.0,58,0.00,,,0.00,Wunderground v.1.13,2013-03-29 18:04:00,
2013-03-29 13:08:00,44.1,30.3,30.19,SE,126,6.0,7.0,58,0.00,,,0.00,Wunderground v.1.13,2013-03-29 18:08:00,
2013-03-29 13:09:00,44.2,30.3,30.18,SSE,159,6.0,7.0,58,0.00,,,0.00,Wunderground v.1.13,2013-03-29 18:09:00,
2013-03-29 13:10:00,44.4,30.5,30.19,SE,140,5.0,5.0,58,0.00,,,0.00,Wunderground v.1.13,2013-03-29 18:10:00,
2013-03-29 13:14:00,45.0,30.2,30.18,ESE,118,4.0,6.0,56,0.00,,,0.00,Wunderground v.1.13,2013-03-29 18:14:00,
2013-03-29 13:15:00,45.1,30.3,30.18,SE,126,4.0,7.0,56,0.00,,,0.00,Wunderground v.1.13,2013-03-29 18:15:00,
2013-03-29 13:17:00,45.4,30.6,30.18,SSE,152,4.0,7.0,56,0.00,,,0.00,Wunderground v.1.13,2013-03-29 18:17:00,
2013-03-29 13:20:00,45.5,29.8,30.18,SE,136,5.0,5.0,54,0.00,,,0.00,Wunderground v.1.13,2013-03-29 18:20:00,
2013-03-29 13:23:00,45.5,30.3,30.18,SE,126,5.0,9.0,55,0.00,,,0.00,Wunderground v.1.13,2013-03-29 18:23:00,
2013-03-29 13:27:00,45.3,29.6,30.18,SE,124,6.0,10.0,54,0.00,,,0.00,Wunderground v.1.13,2013-03-29 18:27:00,
2013-03-29 13:28:00,45.2,29.5,30.18,SE,124,6.0,10.0,54,0.00,,,0.00,Wunderground v.1.13,2013-03-29 18:28:00,
2013-03-29 13:29:00,45.1,29.9,30.18,SE,133,6.0,10.0,55,0.00,,,0.00,Wunderground v.1.13,2013-03-29 18:29:00,
2013-03-29 13:32:00,44.5,29.8,30.18,SE,127,7.0,10.0,56,0.00,,,0.00,Wunderground v.1.13,2013-03-29 18:32:00,
2013-03-29 13:33:00,44.3,29.6,30.18,SE,144,7.0,10.0,56,0.00,,,0.00,Wunderground v.1.13,2013-03-29 18:33:00,
2013-03-29 13:37:00,44.8,30.5,30.18,SE,133,6.0,7.0,57,0.00,,,0.00,Wunderground v.1.13,2013-03-29 18:37:00,
2013-03-29 13:38:00,45.1,30.8,30.18,SE,141,6.0,7.0,57,0.00,,,0.00,Wunderground v.1.13,2013-03-29 18:38:00,
2013-03-29 13:40:00,45.5,31.1,30.18,SE,143,5.0,7.0,57,0.00,,,0.00,Wunderground v.1.13,2013-03-29 18:40:00,
2013-03-29 13:47:00,46.7,30.9,30.18,SSW,204,4.0,6.0,54,0.00,,,0.00,Wunderground v.1.13,2013-03-29 18:47:00,
2013-03-29 13:49:00,46.8,30.6,30.17,SSE,148,4.0,6.0,53,0.00,,,0.00,Wunderground v.1.13,2013-03-29 18:49:00,
2013-03-29 13:51:00,46.8,30.6,30.17,SSE,156,4.0,6.0,53,0.00,,,0.00,Wunderground v.1.13,2013-03-29 18:51:00,
2013-03-29 13:54:00,46.6,30.4,30.17,SW,217,4.0,6.0,53,0.00,,,0.00,Wunderground v.1.13,2013-03-29 18:54:00,
2013-03-29 13:57:00,46.6,30.4,30.17,SSE,154,4.0,6.0,53,0.00,,,0.00,Wunderground v.1.13,2013-03-29 18:57:00,
2013-03-29 14:00:00,46.4,30.6,30.17,SSE,150,4.0,4.0,54,0.00,,,0.00,Wunderground v.1.13,2013-03-29 19:00:00,
2013-03-29 14:03:00,46.3,31.0,30.17,SSW,200,3.0,5.0,55,0.00,,,0.00,Wunderground v.1.13,2013-03-29 19:03:00,
2013-03-29 14:06:00,46.0,30.7,30.17,South,184,3.0,5.0,55,0.00,,,0.00,Wunderground v.1.13,2013-03-29 19:06:00,
2013-03-29 14:07:00,46.0,30.7,30.17,South,187,3.0,5.0,55,0.00,,,0.00,Wunderground v.1.13,2013-03-29 19:07:00,
2013-03-29 14:13:00,46.5,31.6,30.16,SSE,153,3.0,5.0,56,0.00,,,0.00,Wunderground v.1.13,2013-03-29 19:13:00,
2013-03-29 14:15:00,46.2,31.4,30.16,SE,128,3.0,6.0,56,0.00,,,0.00,Wunderground v.1.13,2013-03-29 19:15:00,
2013-03-29 14:20:00,44.5,30.2,30.16,SE,130,4.0,10.0,57,0.00,,,0.00,Wunderground v.1.13,2013-03-29 19:20:00,
2013-03-29 14:21:00,44.5,30.6,30.16,ESE,117,5.0,10.0,58,0.00,,,0.00,Wunderground v.1.13,2013-03-29 19:21:00,
2013-03-29 14:22:00,44.6,30.7,30.16,ESE,119,6.0,10.0,58,0.00,,,0.00,Wunderground v.1.13,2013-03-29 19:22:00,
2013-03-29 14:24:00,44.4,30.5,30.16,ESE,115,6.0,10.0,58,0.00,,,0.00,Wunderground v.1.13,2013-03-29 19:24:00,
2013-03-29 14:26:00,43.9,30.1,30.16,ESE,123,7.0,13.0,58,0.00,,,0.00,Wunderground v.1.13,2013-03-29 19:26:00,
2013-03-29 14:27:00,43.7,29.9,30.16,ESE,117,8.0,13.0,58,0.00,,,0.00,Wunderground v.1.13,2013-03-29 19:27:00,
2013-03-29 14:32:00,44.2,30.3,30.16,SSW,196,7.0,7.0,58,0.00,,,0.00,Wunderground v.1.13,2013-03-29 19:32:00,
2013-03-29 14:33:00,44.4,30.5,30.16,ESE,119,7.0,7.0,58,0.00,,,0.00,Wunderground v.1.13,2013-03-29 19:33:00,
2013-03-29 14:34:00,44.6,30.7,30.15,ESE,123,7.0,7.0,58,0.00,,,0.00,Wunderground v.1.13,2013-03-29 19:34:00,
2013-03-29 14:38:00,44.3,30.4,30.15,SE,125,6.0,9.0,58,0.00,,,0.00,Wunderground v.1.13,2013-03-29 19:38:00,
2013-03-29 14:39:00,44.1,30.3,30.15,SE,127,6.0,9.0,58,0.00,,,0.00,Wunderground v.1.13,2013-03-29 19:39:00,
2013-03-29 14:41:00,43.8,30.0,30.15,ESE,123,6.0,6.0,58,0.00,,,0.00,Wunderground v.1.13,2013-03-29 19:41:00,
2013-03-29 14:44:00,43.3,30.3,30.15,ESE,123,7.0,9.0,60,0.00,,,0.00,Wunderground v.1.13,2013-03-29 19:44:00,
2013-03-29 14:45:00,43.2,30.2,30.15,ESE,123,7.0,7.0,60,0.00,,,0.00,Wunderground v.1.13,2013-03-29 19:45:00,
2013-03-29 14:49:00,43.5,30.5,30.15,ESE,119,7.0,8.0,60,0.00,,,0.00,Wunderground v.1.13,2013-03-29 19:49:00,
2013-03-29 14:54:00,44.2,31.2,30.15,ESE,118,6.0,7.0,60,0.00,,,0.00,Wunderground v.1.13,2013-03-29 19:54:00,
2013-03-29 14:55:00,44.6,31.6,30.15,SE,145,5.0,6.0,60,0.00,,,0.00,Wunderground v.1.13,2013-03-29 19:55:00,
2013-03-29 14:58:00,45.5,32.0,30.15,SE,127,4.0,6.0,59,0.00,,,0.00,Wunderground v.1.13,2013-03-29 19:58:00,
2013-03-29 15:02:00,46.4,32.0,30.14,SE,144,4.0,4.0,57,0.00,,,0.00,Wunderground v.1.13,2013-03-29 20:02:00,
2013-03-29 15:04:00,46.8,32.4,30.14,SE,136,3.0,4.0,57,0.00,,,0.00,Wunderground v.1.13,2013-03-29 20:04:00,
2013-03-29 15:05:00,47.0,32.5,30.14,SE,133,3.0,4.0,57,0.00,,,0.00,Wunderground v.1.13,2013-03-29 20:05:00,
2013-03-29 15:10:00,46.2,31.4,30.14,ESE,117,5.0,7.0,56,0.00,,,0.00,Wunderground v.1.13,2013-03-29 20:10:00,
2013-03-29 15:11:00,46.0,31.6,30.14,ESE,123,5.0,7.0,57,0.00,,,0.00,Wunderground v.1.13,2013-03-29 20:11:00,
2013-03-29 15:13:00,45.4,31.5,30.14,ESE,119,6.0,9.0,58,0.00,,,0.00,Wunderground v.1.13,2013-03-29 20:13:00,
2013-03-29 15:14:00,45.3,31.4,30.14,ESE,117,6.0,9.0,58,0.00,,,0.00,Wunderground v.1.13,2013-03-29 20:14:00,
2013-03-29 15:17:00,45.4,31.5,30.14,SE,126,7.0,11.0,58,0.00,,,0.00,Wunderground v.1.13,2013-03-29 20:17:00,
2013-03-29 15:18:00,45.4,31.5,30.14,SE,126,7.0,11.0,58,0.00,,,0.00,Wunderground v.1.13,2013-03-29 20:18:00,
2013-03-29 15:21:00,45.4,31.5,30.14,SSE,166,7.0,7.0,58,0.00,,,0.00,Wunderground v.1.13,2013-03-29 20:21:00,
2013-03-29 15:23:00,45.9,31.9,30.14,SE,146,7.0,7.0,58,0.00,,,0.00,Wunderground v.1.13,2013-03-29 20:23:00,
2013-03-29 15:27:00,46.1,31.7,30.14,SE,125,7.0,9.0,57,0.00,,,0.00,Wunderground v.1.13,2013-03-29 20:27:00,
2013-03-29 15:30:00,46.3,31.9,30.13,SE,125,5.0,12.0,57,0.00,,,0.00,Wunderground v.1.13,2013-03-29 20:30:00,
2013-03-29 15:33:00,46.2,31.4,30.13,SE,124,7.0,12.0,56,0.00,,,0.00,Wunderground v.1.13,2013-03-29 20:33:00,
2013-03-29 15:35:00,45.9,31.1,30.13,ESE,119,7.0,10.0,56,0.00,,,0.00,Wunderground v.1.13,2013-03-29 20:35:00,
2013-03-29 15:37:00,45.7,31.3,30.13,SE,125,7.0,10.0,57,0.00,,,0.00,Wunderground v.1.13,2013-03-29 20:37:00,
2013-03-29 15:38:00,45.6,31.2,30.13,SE,125,7.0,10.0,57,0.00,,,0.00,Wunderground v.1.13,2013-03-29 20:38:00,
2013-03-29 15:43:00,46.1,31.7,30.13,SW,227,5.0,7.0,57,0.00,,,0.00,Wunderground v.1.13,2013-03-29 20:43:00,
2013-03-29 15:45:00,46.7,31.8,30.13,ESE,122,5.0,5.0,56,0.00,,,0.00,Wunderground v.1.13,2013-03-29 20:45:00,
2013-03-29 15:47:00,46.8,31.5,30.13,SE,127,4.0,5.0,55,0.00,,,0.00,Wunderground v.1.13,2013-03-29 20:47:00,
2013-03-29 15:49:00,46.9,32.0,30.13,SE,126,3.0,5.0,56,0.00,,,0.00,Wunderground v.1.13,2013-03-29 20:49:00,
2013-03-29 15:50:00,47.1,31.7,30.13,SE,127,3.0,6.0,55,0.00,,,0.00,Wunderground v.1.13,2013-03-29 20:50:00,
2013-03-29 15:52:00,47.0,31.7,30.13,ESE,123,3.0,6.0,55,0.00,,,0.00,Wunderground v.1.13,2013-03-29 20:52:00,
2013-03-29 15:54:00,46.7,31.4,30.13,SE,129,4.0,8.0,55,0.00,,,0.00,Wunderground v.1.13,2013-03-29 20:54:00,
2013-03-29 15:58:00,46.7,31.8,30.12,ESE,121,4.0,7.0,56,0.00,,,0.00,Wunderground v.1.13,2013-03-29 20:58:00,
2013-03-29 16:03:00,47.0,32.1,30.12,SE,129,5.0,5.0,56,0.00,,,0.00,Wunderground v.1.13,2013-03-29 21:03:00,
2013-03-29 16:04:00,47.3,32.4,30.12,WSW,237,4.0,5.0,56,0.00,,,0.00,Wunderground v.1.13,2013-03-29 21:04:00,
2013-03-29 16:07:00,47.8,31.9,30.12,ESE,122,4.0,10.0,54,0.00,,,0.00,Wunderground v.1.13,2013-03-29 21:07:00,
2013-03-29 16:10:00,47.7,32.3,30.11,ESE,117,4.0,5.0,55,0.00,,,0.00,Wunderground v.1.13,2013-03-29 21:10:00,
2013-03-29 16:12:00,47.6,32.2,30.11,SE,137,4.0,5.0,55,0.00,,,0.00,Wunderground v.1.13,2013-03-29 21:12:00,
2013-03-29 16:13:00,47.5,32.1,30.11,ESE,118,4.0,6.0,55,0.00,,,0.00,Wunderground v.1.13,2013-03-29 21:13:00,
2013-03-29 16:15:00,47.6,32.2,30.11,SE,145,5.0,5.0,55,0.00,,,0.00,Wunderground v.1.13,2013-03-29 21:15:00,
2013-03-29 16:20:00,46.9,32.0,30.11,ESE,121,6.0,11.0,56,0.00,,,0.00,Wunderground v.1.13,2013-03-29 21:20:00,
2013-03-29 16:22:00,46.7,31.8,30.11,SE,126,7.0,11.0,56,0.00,,,0.00,Wunderground v.1.13,2013-03-29 21:22:00,
2013-03-29 16:26:00,46.7,31.8,30.11,ESE,123,9.0,9.0,56,0.00,,,0.00,Wunderground v.1.13,2013-03-29 21:26:00,
2013-03-29 16:28:00,46.8,31.9,30.11,ESE,117,8.0,9.0,56,0.00,,,0.00,Wunderground v.1.13,2013-03-29 21:28:00,
2013-03-29 16:30:00,47.1,32.2,30.11,SE,125,7.0,10.0,56,0.00,,,0.00,Wunderground v.1.13,2013-03-29 21:30:00,
2013-03-29 16:33:00,47.1,31.7,30.11,ESE,119,7.0,11.0,55,0.00,,,0.00,Wunderground v.1.13,2013-03-29 21:33:00,
2013-03-29 16:34:00,47.2,32.3,30.11,ESE,113,6.0,11.0,56,0.00,,,0.00,Wunderground v.1.13,2013-03-29 21:34:00,
2013-03-29 16:38:00,47.6,32.2,30.11,ESE,105,5.0,6.0,55,0.00,,,0.00,Wunderground v.1.13,2013-03-29 21:38:00,
2013-03-29 16:39:00,47.8,32.4,30.11,SE,133,5.0,8.0,55,0.00,,,0.00,Wunderground v.1.13,2013-03-29 21:39:00,
2013-03-29 16:43:00,48.2,31.9,30.10,SE,126,3.0,7.0,53,0.00,,,0.00,Wunderground v.1.13,2013-03-29 21:43:00,
2013-03-29 16:44:00,48.0,31.7,30.11,SE,130,4.0,7.0,53,0.00,,,0.00,Wunderground v.1.13,2013-03-29 21:44:00,
2013-03-29 16:45:00,48.0,32.1,30.11,SE,132,4.0,4.0,54,0.00,,,0.00,Wunderground v.1.13,2013-03-29 21:45:00,
2013-03-29 16:50:00,48.9,32.5,30.10,ESE,113,4.0,4.0,53,0.00,,,0.00,Wunderground v.1.13,2013-03-29 21:50:00,
2013-03-29 16:51:00,49.0,32.1,30.10,ESE,113,3.0,5.0,52,0.00,,,0.00,Wunderground v.1.13,2013-03-29 21:51:00,
2013-03-29 16:53:00,49.0,32.1,30.10,ESE,121,4.0,7.0,52,0.00,,,0.00,Wunderground v.1.13,2013-03-29 21:53:00,
2013-03-29 16:55:00,49.0,32.1,30.10,South,183,3.0,4.0,52,0.00,,,0.00,Wunderground v.1.13,2013-03-29 21:55:00,
2013-03-29 16:56:00,49.2,32.3,30.10,SW,215,3.0,4.0,52,0.00,,,0.00,Wunderground v.1.13,2013-03-29 21:56:00,
2013-03-29 16:57:00,49.3,32.4,30.10,SE,128,3.0,4.0,52,0.00,,,0.00,Wunderground v.1.13,2013-03-29 21:57:00,
2013-03-29 17:02:00,49.1,31.7,30.10,SE,130,4.0,8.0,51,0.00,,,0.00,Wunderground v.1.13,2013-03-29 22:02:00,
2013-03-29 17:03:00,49.0,32.1,30.10,SSE,159,3.0,8.0,52,0.00,,,0.00,Wunderground v.1.13,2013-03-29 22:03:00,
2013-03-29 17:07:00,48.8,31.9,30.10,ESE,121,4.0,6.0,52,0.00,,,0.00,Wunderground v.1.13,2013-03-29 22:07:00,
2013-03-29 17:10:00,48.2,31.4,30.10,ESE,122,5.0,10.0,52,0.00,,,0.00,Wunderground v.1.13,2013-03-29 22:10:00,
2013-03-29 17:13:00,47.1,31.3,30.10,SE,130,5.0,11.0,54,0.00,,,0.00,Wunderground v.1.13,2013-03-29 22:13:00,
2013-03-29 17:16:00,46.6,31.3,30.10,ESE,120,6.0,8.0,55,0.00,,,0.00,Wunderground v.1.13,2013-03-29 22:16:00,
2013-03-29 17:18:00,46.5,31.2,30.10,ESE,123,7.0,11.0,55,0.00,,,0.00,Wunderground v.1.13,2013-03-29 22:18:00,
2013-03-29 17:19:00,46.4,31.1,30.10,SE,126,7.0,11.0,55,0.00,,,0.00,Wunderground v.1.13,2013-03-29 22:19:00,
2013-03-29 17:24:00,45.6,31.2,30.10,ESE,123,6.0,7.0,57,0.00,,,0.00,Wunderground v.1.13,2013-03-29 22:24:00,
2013-03-29 17:26:00,46.0,31.2,30.10,ESE,123,6.0,6.0,56,0.00,,,0.00,Wunderground v.1.13,2013-03-29 22:26:00,
2013-03-29 17:29:00,46.2,31.4,30.10,ESE,123,5.0,7.0,56,0.00,,,0.00,Wunderground v.1.13,2013-03-29 22:29:00,
2013-03-29 17:32:00,46.1,31.3,30.10,ESE,123,5.0,7.0,56,0.00,,,0.00,Wunderground v.1.13,2013-03-29 22:32:00,
2013-03-29 17:34:00,46.0,31.2,30.09,ESE,122,6.0,8.0,56,0.00,,,0.00,Wunderground v.1.13,2013-03-29 22:34:00,
2013-03-29 17:37:00,45.7,31.3,30.09,SE,125,6.0,8.0,57,0.00,,,0.00,Wunderground v.1.13,2013-03-29 22:37:00,
2013-03-29 17:42:00,45.9,31.5,30.09,ESE,122,7.0,11.0,57,0.00,,,0.00,Wunderground v.1.13,2013-03-29 22:42:00,
2013-03-29 17:45:00,46.1,31.3,30.09,ESE,115,8.0,8.0,56,0.00,,,0.00,Wunderground v.1.13,2013-03-29 22:45:00,
2013-03-29 17:47:00,46.3,31.4,30.09,ESE,119,8.0,9.0,56,0.00,,,0.00,Wunderground v.1.13,2013-03-29 22:47:00,
2013-03-29 17:49:00,46.5,31.2,30.09,ESE,120,9.0,9.0,55,0.00,,,0.00,Wunderground v.1.13,2013-03-29 22:49:00,
2013-03-29 17:50:00,46.5,31.2,30.09,ESE,121,9.0,9.0,55,0.00,,,0.00,Wunderground v.1.13,2013-03-29 22:50:00,
2013-03-29 17:52:00,46.5,31.2,30.09,ESE,123,8.0,10.0,55,0.00,,,0.00,Wunderground v.1.13,2013-03-29 22:52:00,
2013-03-29 17:55:00,46.4,31.1,30.09,ESE,121,8.0,11.0,55,0.00,,,0.00,Wunderground v.1.13,2013-03-29 22:55:00,
2013-03-29 17:57:00,45.9,31.1,30.09,ESE,122,7.0,8.0,56,0.00,,,0.00,Wunderground v.1.13,2013-03-29 22:57:00,
2013-03-29 17:58:00,45.9,31.1,30.09,SE,130,7.0,8.0,56,0.00,,,0.00,Wunderground v.1.13,2013-03-29 22:58:00,
2013-03-29 18:03:00,46.1,31.3,30.09,ESE,119,7.0,11.0,56,0.00,,,0.00,Wunderground v.1.13,2013-03-29 23:03:00,
2013-03-29 18:07:00,45.5,31.1,30.09,ESE,121,8.0,11.0,57,0.00,,,0.00,Wunderground v.1.13,2013-03-29 23:07:00,
2013-03-29 18:08:00,45.4,31.0,30.09,SE,126,8.0,11.0,57,0.00,,,0.00,Wunderground v.1.13,2013-03-29 23:08:00,
2013-03-29 18:14:00,45.5,31.1,30.09,ESE,119,7.0,11.0,57,0.00,,,0.00,Wunderground v.1.13,2013-03-29 23:14:00,
2013-03-29 18:15:00,45.4,31.0,30.09,ESE,123,7.0,7.0,57,0.00,,,0.00,Wunderground v.1.13,2013-03-29 23:15:00,
2013-03-29 18:19:00,45.0,31.1,30.09,ESE,121,6.0,8.0,58,0.00,,,0.00,Wunderground v.1.13,2013-03-29 23:19:00,
2013-03-29 18:21:00,44.8,30.9,30.09,ESE,121,6.0,6.0,58,0.00,,,0.00,Wunderground v.1.13,2013-03-29 23:21:00,
2013-03-29 18:23:00,44.6,30.7,30.09,ESE,119,6.0,7.0,58,0.00,,,0.00,Wunderground v.1.13,2013-03-29 23:23:00,
2013-03-29 18:24:00,44.5,31.1,30.09,ESE,119,6.0,7.0,59,0.00,,,0.00,Wunderground v.1.13,2013-03-29 23:24:00,
2013-03-29 18:28:00,44.3,30.9,30.09,ESE,115,6.0,6.0,59,0.00,,,0.00,Wunderground v.1.13,2013-03-29 23:28:00,
2013-03-29 18:31:00,44.4,31.0,30.09,ESE,118,6.0,6.0,59,0.00,,,0.00,Wunderground v.1.13,2013-03-29 23:31:00,
2013-03-29 18:33:00,44.6,31.1,30.09,ESE,119,6.0,8.0,59,0.00,,,0.00,Wunderground v.1.13,2013-03-29 23:33:00,
2013-03-29 18:34:00,44.7,30.8,30.09,ESE,119,6.0,8.0,58,0.00,,,0.00,Wunderground v.1.13,2013-03-29 23:34:00,
2013-03-29 18:40:00,44.9,31.0,30.09,ESE,121,7.0,12.0,58,0.00,,,0.00,Wunderground v.1.13,2013-03-29 23:40:00,
2013-03-29 18:41:00,44.9,31.0,30.09,ESE,121,7.0,7.0,58,0.00,,,0.00,Wunderground v.1.13,2013-03-29 23:41:00,
2013-03-29 18:45:00,44.6,30.7,30.09,ESE,122,6.0,7.0,58,0.00,,,0.00,Wunderground v.1.13,2013-03-29 23:45:00,
2013-03-29 18:46:00,44.5,31.1,30.09,ESE,122,6.0,6.0,59,0.00,,,0.00,Wunderground v.1.13,2013-03-29 23:46:00,
2013-03-29 18:47:00,44.4,30.5,30.09,ESE,121,6.0,6.0,58,0.00,,,0.00,Wunderground v.1.13,2013-03-29 23:47:00,
2013-03-29 18:50:00,44.4,31.0,30.09,ESE,121,6.0,6.0,59,0.00,,,0.00,Wunderground v.1.13,2013-03-29 23:50:00,
2013-03-29 18:53:00,44.2,30.8,30.08,SE,126,6.0,6.0,59,0.00,,,0.00,Wunderground v.1.13,2013-03-29 23:53:00,
2013-03-29 18:55:00,44.4,31.0,30.08,SE,125,6.0,8.0,59,0.00,,,0.00,Wunderground v.1.13,2013-03-29 23:55:00,
2013-03-29 18:56:00,44.5,31.1,30.08,ESE,123,6.0,6.0,59,0.00,,,0.00,Wunderground v.1.13,2013-03-29 23:56:00,
2013-03-29 18:59:00,44.8,30.9,30.08,SE,129,7.0,8.0,58,0.00,,,0.00,Wunderground v.1.13,2013-03-29 23:59:00,
2013-03-29 19:01:00,44.9,31.0,30.08,ESE,122,7.0,7.0,58,0.00,,,0.00,Wunderground v.1.13,2013-03-30 00:01:00,
2013-03-29 19:04:00,44.3,30.9,30.08,SE,126,8.0,10.0,59,0.00,,,0.00,Wunderground v.1.13,2013-03-30 00:04:00,
2013-03-29 19:05:00,44.3,30.9,30.08,SE,125,8.0,8.0,59,0.00,,,0.00,Wunderground v.1.13,2013-03-30 00:05:00,
2013-03-29 19:06:00,44.4,31.0,30.08,ESE,121,8.0,8.0,59,0.00,,,0.00,Wunderground v.1.13,2013-03-30 00:06:00,
2013-03-29 19:07:00,44.4,31.0,30.08,ESE,122,8.0,8.0,59,0.00,,,0.00,Wunderground v.1.13,2013-03-30 00:07:00,
2013-03-29 19:11:00,44.0,31.0,30.08,SE,125,7.0,7.0,60,0.00,,,0.00,Wunderground v.1.13,2013-03-30 00:11:00,
2013-03-29 19:12:00,43.9,30.9,30.08,SE,126,7.0,7.0,60,0.00,,,0.00,Wunderground v.1.13,2013-03-30 00:12:00,
2013-03-29 19:15:00,44.0,31.0,30.08,ESE,122,7.0,7.0,60,0.00,,,0.00,Wunderground v.1.13,2013-03-30 00:15:00,
2013-03-29 19:16:00,44.0,31.0,30.08,ESE,123,6.0,7.0,60,0.00,,,0.00,Wunderground v.1.13,2013-03-30 00:16:00,
2013-03-29 19:19:00,44.1,31.1,30.08,ESE,118,6.0,9.0,60,0.00,,,0.00,Wunderground v.1.13,2013-03-30 00:19:00,
2013-03-29 19:22:00,43.9,30.9,30.07,ESE,119,6.0,7.0,60,0.00,,,0.00,Wunderground v.1.13,2013-03-30 00:22:00,
2013-03-29 19:24:00,43.6,30.6,30.07,ESE,119,6.0,7.0,60,0.00,,,0.00,Wunderground v.1.13,2013-03-30 00:24:00,
2013-03-29 19:25:00,43.5,30.9,30.07,ESE,118,6.0,6.0,61,0.00,,,0.00,Wunderground v.1.13,2013-03-30 00:25:00,
2013-03-29 19:29:00,43.1,31.0,30.07,ESE,119,5.0,6.0,62,0.00,,,0.00,Wunderground v.1.13,2013-03-30 00:29:00,
2013-03-29 19:31:00,43.0,30.9,30.08,SE,124,5.0,8.0,62,0.00,,,0.00,Wunderground v.1.13,2013-03-30 00:31:00,
2013-03-29 19:33:00,43.3,31.1,30.08,ESE,123,5.0,8.0,62,0.00,,,0.00,Wunderground v.1.13,2013-03-30 00:33:00,
2013-03-29 19:34:00,43.3,31.1,30.08,SE,126,5.0,8.0,62,0.00,,,0.00,Wunderground v.1.13,2013-03-30 00:34:00,
2013-03-29 19:39:00,43.6,31.4,30.08,SE,125,6.0,7.0,62,0.00,,,0.00,Wunderground v.1.13,2013-03-30 00:39:00,
2013-03-29 19:41:00,43.5,31.3,30.07,SE,125,6.0,7.0,62,0.00,,,0.00,Wunderground v.1.13,2013-03-30 00:41:00,
2013-03-29 19:42:00,43.6,31.4,30.07,ESE,123,6.0,7.0,62,0.00,,,0.00,Wunderground v.1.13,2013-03-30 00:42:00,
2013-03-29 19:47:00,43.4,32.0,30.07,ESE,122,6.0,9.0,64,0.00,,,0.00,Wunderground v.1.13,2013-03-30 00:47:00,
2013-03-29 19:49:00,43.3,31.9,30.07,SE,130,7.0,9.0,64,0.00,,,0.00,Wunderground v.1.13,2013-03-30 00:49:00,
2013-03-29 19:52:00,43.2,31.8,30.07,SE,126,7.0,8.0,64,0.00,,,0.00,Wunderground v.1.13,2013-03-30 00:52:00,
2013-03-29 19:54:00,43.1,31.7,30.07,SE,133,7.0,8.0,64,0.00,,,0.00,Wunderground v.1.13,2013-03-30 00:54:00,
2013-03-29 19:58:00,42.9,31.9,30.07,ESE,121,7.0,7.0,65,0.00,,,0.00,Wunderground v.1.13,2013-03-30 00:58:00,
2013-03-29 19:59:00,42.9,31.9,30.07,ESE,121,6.0,7.0,65,0.00,,,0.00,Wunderground v.1.13,2013-03-30 00:59:00,
2013-03-29 20:00:00,42.8,31.8,30.07,ESE,121,6.0,6.0,65,0.00,,,0.00,Wunderground v.1.13,2013-03-30 01:00:00,
2013-03-29 20:03:00,42.7,32.1,30.07,ESE,122,5.0,6.0,66,0.00,,,0.00,Wunderground v.1.13,2013-03-30 01:03:00,
2013-03-29 20:04:00,42.7,32.1,30.07,ESE,122,5.0,6.0,66,0.00,,,0.00,Wunderground v.1.13,2013-03-30 01:04:00,
2013-03-29 20:09:00,42.8,32.2,30.07,ESE,122,5.0,7.0,66,0.00,,,0.00,Wunderground v.1.13,2013-03-30 01:09:00,
2013-03-29 20:10:00,42.8,32.2,30.07,ESE,122,4.0,4.0,66,0.00,,,0.00,Wunderground v.1.13,2013-03-30 01:10:00,
2013-03-29 20:11:00,42.7,32.1,30.07,ESE,122,4.0,4.0,66,0.00,,,0.00,Wunderground v.1.13,2013-03-30 01:11:00,
2013-03-29 20:14:00,42.4,31.8,30.07,ESE,122,5.0,6.0,66,0.00,,,0.00,Wunderground v.1.13,2013-03-30 01:14:00,
2013-03-29 20:15:00,42.2,31.6,30.07,ESE,122,5.0,5.0,66,0.00,,,0.00,Wunderground v.1.13,2013-03-30 01:15:00,
2013-03-29 20:16:00,42.0,31.8,30.07,ESE,122,5.0,5.0,67,0.00,,,0.00,Wunderground v.1.13,2013-03-30 01:16:00,
2013-03-29 20:20:00,41.5,31.7,30.07,ESE,122,4.0,4.0,68,0.00,,,0.00,Wunderground v.1.13,2013-03-30 01:20:00,
2013-03-29 20:21:00,41.4,31.6,30.07,ESE,122,4.0,4.0,68,0.00,,,0.00,Wunderground v.1.13,2013-03-30 01:21:00,
2013-03-29 20:24:00,41.2,31.8,30.07,ESE,122,4.0,5.0,69,0.00,,,0.00,Wunderground v.1.13,2013-03-30 01:24:00,
2013-03-29 20:27:00,41.1,31.7,30.07,ESE,122,4.0,4.0,69,0.00,,,0.00,Wunderground v.1.13,2013-03-30 01:27:00,
2013-03-29 20:28:00,41.1,31.7,30.07,ESE,122,4.0,4.0,69,0.00,,,0.00,Wunderground v.1.13,2013-03-30 01:28:00,
2013-03-29 20:31:00,41.1,31.7,30.07,ESE,122,4.0,4.0,69,0.00,,,0.00,Wunderground v.1.13,2013-03-30 01:31:00,
2013-03-29 20:33:00,40.9,31.5,30.07,ESE,122,4.0,4.0,69,0.00,,,0.00,Wunderground v.1.13,2013-03-30 01:33:00,
2013-03-29 20:35:00,41.0,32.0,30.07,ESE,122,4.0,4.0,70,0.00,,,0.00,Wunderground v.1.13,2013-03-30 01:35:00,
2013-03-29 20:37:00,41.0,31.6,30.07,ESE,122,4.0,4.0,69,0.00,,,0.00,Wunderground v.1.13,2013-03-30 01:37:00,
2013-03-29 20:38:00,40.9,31.5,30.07,ESE,122,4.0,5.0,69,0.00,,,0.00,Wunderground v.1.13,2013-03-30 01:38:00,
2013-03-29 20:42:00,41.0,31.6,30.07,ESE,121,5.0,7.0,69,0.00,,,0.00,Wunderground v.1.13,2013-03-30 01:42:00,
2013-03-29 20:43:00,41.0,31.6,30.07,ESE,118,5.0,7.0,69,0.00,,,0.00,Wunderground v.1.13,2013-03-30 01:43:00,
2013-03-29 20:46:00,41.0,31.6,30.07,SE,126,6.0,7.0,69,0.00,,,0.00,Wunderground v.1.13,2013-03-30 01:46:00,
2013-03-29 20:47:00,41.1,31.7,30.07,SE,126,6.0,7.0,69,0.00,,,0.00,Wunderground v.1.13,2013-03-30 01:47:00,
2013-03-29 20:52:00,41.4,32.0,30.07,ESE,122,7.0,9.0,69,0.00,,,0.00,Wunderground v.1.13,2013-03-30 01:52:00,
2013-03-29 20:53:00,41.4,32.0,30.07,ESE,121,7.0,9.0,69,0.00,,,0.00,Wunderground v.1.13,2013-03-30 01:53:00,
2013-03-29 20:57:00,41.3,31.9,30.07,SE,129,7.0,9.0,69,0.00,,,0.00,Wunderground v.1.13,2013-03-30 01:57:00,
2013-03-29 20:58:00,41.3,31.9,30.07,ESE,121,7.0,9.0,69,0.00,,,0.00,Wunderground v.1.13,2013-03-30 01:58:00,
2013-03-29 21:01:00,41.2,31.8,30.07,ESE,122,6.0,7.0,69,0.00,,,0.00,Wunderground v.1.13,2013-03-30 02:01:00,
2013-03-29 21:02:00,41.2,31.8,30.06,ESE,121,6.0,7.0,69,0.00,,,0.00,Wunderground v.1.13,2013-03-30 02:02:00,
2013-03-29 21:03:00,41.2,31.8,30.06,ESE,122,7.0,7.0,69,0.00,,,0.00,Wunderground v.1.13,2013-03-30 02:03:00,
2013-03-29 21:04:00,41.2,31.8,30.06,ESE,122,7.0,7.0,69,0.00,,,0.00,Wunderground v.1.13,2013-03-30 02:04:00,
2013-03-29 21:08:00,41.0,32.0,30.06,ESE,121,7.0,9.0,70,0.00,,,0.00,Wunderground v.1.13,2013-03-30 02:08:00,
2013-03-29 21:09:00,41.0,32.0,30.06,SE,128,7.0,9.0,70,0.00,,,0.00,Wunderground v.1.13,2013-03-30 02:09:00,
2013-03-29 21:10:00,41.0,32.0,30.06,SE,125,7.0,7.0,70,0.00,,,0.00,Wunderground v.1.13,2013-03-30 02:10:00,
2013-03-29 21:15:00,41.0,32.0,30.06,SE,128,8.0,8.0,70,0.00,,,0.00,Wunderground v.1.13,2013-03-30 02:15:00,
2013-03-29 21:16:00,41.0,32.0,30.06,ESE,122,8.0,8.0,70,0.00,,,0.00,Wunderground v.1.13,2013-03-30 02:16:00,
2013-03-29 21:17:00,41.0,32.0,30.06,SE,124,8.0,8.0,70,0.00,,,0.00,Wunderground v.1.13,2013-03-30 02:17:00,
2013-03-29 21:20:00,40.8,31.8,30.06,SE,127,8.0,8.0,70,0.00,,,0.00,Wunderground v.1.13,2013-03-30 02:20:00,
2013-03-29 21:21:00,40.8,31.8,30.06,ESE,122,8.0,9.0,70,0.00,,,0.00,Wunderground v.1.13,2013-03-30 02:21:00,
2013-03-29 21:23:00,40.8,31.8,30.06,SE,125,8.0,10.0,70,0.00,,,0.00,Wunderground v.1.13,2013-03-30 02:23:00,
2013-03-29 21:29:00,40.6,31.9,30.05,ESE,121,7.0,8.0,71,0.00,,,0.00,Wunderground v.1.13,2013-03-30 02:29:00,
2013-03-29 21:30:00,40.6,31.9,30.06,SE,125,7.0,8.0,71,0.00,,,0.00,Wunderground v.1.13,2013-03-30 02:30:00,
2013-03-29 21:34:00,40.8,32.1,30.06,SE,125,6.0,8.0,71,0.00,,,0.00,Wunderground v.1.13,2013-03-30 02:34:00,
2013-03-29 21:35:00,40.9,32.2,30.06,SE,125,6.0,7.0,71,0.00,,,0.00,Wunderground v.1.13,2013-03-30 02:35:00,
2013-03-29 21:37:00,40.8,32.1,30.06,SE,125,6.0,7.0,71,0.00,,,0.00,Wunderground v.1.13,2013-03-30 02:37:00,
2013-03-29 21:38:00,40.8,32.1,30.06,ESE,119,6.0,9.0,71,0.00,,,0.00,Wunderground v.1.13,2013-03-30 02:38:00,
2013-03-29 21:43:00,40.6,31.9,30.06,ESE,122,6.0,6.0,71,0.00,,,0.00,Wunderground v.1.13,2013-03-30 02:43:00,
2013-03-29 21:44:00,40.5,32.2,30.06,ESE,122,6.0,6.0,72,0.00,,,0.00,Wunderground v.1.13,2013-03-30 02:44:00,
2013-03-29 21:45:00,40.4,32.1,30.06,ESE,109,6.0,7.0,72,0.00,,,0.00,Wunderground v.1.13,2013-03-30 02:45:00,
2013-03-29 21:52:00,40.8,32.5,30.06,ESE,123,6.0,6.0,72,0.00,,,0.00,Wunderground v.1.13,2013-03-30 02:52:00,
2013-03-29 21:53:00,40.8,32.5,30.05,ESE,123,6.0,6.0,72,0.00,,,0.00,Wunderground v.1.13,2013-03-30 02:53:00,
2013-03-29 21:54:00,40.7,32.4,30.05,ESE,123,6.0,10.0,72,0.00,,,0.00,Wunderground v.1.13,2013-03-30 02:54:00,
2013-03-29 21:55:00,40.6,32.3,30.05,SE,124,6.0,7.0,72,0.00,,,0.00,Wunderground v.1.13,2013-03-30 02:55:00,
2013-03-29 21:59:00,40.8,32.8,30.05,ESE,109,6.0,7.0,73,0.00,,,0.00,Wunderground v.1.13,2013-03-30 02:59:00,
2013-03-29 22:00:00,40.8,32.8,30.05,SE,128,6.0,7.0,73,0.00,,,0.00,Wunderground v.1.13,2013-03-30 03:00:00,
2013-03-29 22:01:00,40.8,32.8,30.05,SE,126,6.0,7.0,73,0.00,,,0.00,Wunderground v.1.13,2013-03-30 03:01:00,
2013-03-29 22:02:00,40.8,32.8,30.05,SE,128,6.0,7.0,73,0.00,,,0.00,Wunderground v.1.13,2013-03-30 03:02:00,
2013-03-29 22:05:00,40.8,32.8,30.05,ESE,121,6.0,7.0,73,0.00,,,0.00,Wunderground v.1.13,2013-03-30 03:05:00,
2013-03-29 22:06:00,40.8,32.8,30.05,SE,132,6.0,9.0,73,0.00,,,0.00,Wunderground v.1.13,2013-03-30 03:06:00,
2013-03-29 22:07:00,40.8,32.8,30.05,SE,124,6.0,9.0,73,0.00,,,0.00,Wunderground v.1.13,2013-03-30 03:07:00,
2013-03-29 22:11:00,40.9,32.9,30.05,SE,133,6.0,6.0,73,0.00,,,0.00,Wunderground v.1.13,2013-03-30 03:11:00,
2013-03-29 22:12:00,40.9,32.9,30.05,SE,130,6.0,6.0,73,0.00,,,0.00,Wunderground v.1.13,2013-03-30 03:12:00,
2013-03-29 22:14:00,41.0,33.0,30.05,SE,130,5.0,6.0,73,0.00,,,0.00,Wunderground v.1.13,2013-03-30 03:14:00,
2013-03-29 22:17:00,41.0,33.0,30.05,SE,130,4.0,5.0,73,0.00,,,0.00,Wunderground v.1.13,2013-03-30 03:17:00,
2013-03-29 22:18:00,40.9,32.9,30.05,SE,130,4.0,5.0,73,0.00,,,0.00,Wunderground v.1.13,2013-03-30 03:18:00,
2013-03-29 22:22:00,40.9,32.9,30.05,SE,130,4.0,5.0,73,0.00,,,0.00,Wunderground v.1.13,2013-03-30 03:22:00,
2013-03-29 22:23:00,40.9,33.2,30.05,SE,130,3.0,5.0,74,0.00,,,0.00,Wunderground v.1.13,2013-03-30 03:23:00,
2013-03-29 22:24:00,40.9,33.2,30.05,SE,130,3.0,5.0,74,0.00,,,0.00,Wunderground v.1.13,2013-03-30 03:24:00,
2013-03-29 22:27:00,40.9,33.2,30.06,SE,130,2.0,3.0,74,0.00,,,0.00,Wunderground v.1.13,2013-03-30 03:27:00,
2013-03-29 22:30:00,40.9,33.6,30.06,SE,130,1.0,1.0,75,0.00,,,0.00,Wunderground v.1.13,2013-03-30 03:30:00,
2013-03-29 22:33:00,41.0,33.7,30.06,SE,130,1.0,1.0,75,0.00,,,0.00,Wunderground v.1.13,2013-03-30 03:33:00,
2013-03-29 22:34:00,41.0,33.7,30.05,SE,130,1.0,1.0,75,0.00,,,0.00,Wunderground v.1.13,2013-03-30 03:34:00,
2013-03-29 22:41:00,41.1,34.1,30.06,SSW,207,1.0,1.0,76,0.00,,,0.00,Wunderground v.1.13,2013-03-30 03:41:00,
2013-03-29 22:43:00,41.1,34.4,30.05,SE,143,1.0,4.0,77,0.00,,,0.00,Wunderground v.1.13,2013-03-30 03:43:00,
2013-03-29 22:44:00,41.0,34.0,30.05,SE,143,1.0,4.0,76,0.00,,,0.00,Wunderground v.1.13,2013-03-30 03:44:00,
2013-03-29 22:45:00,40.8,33.8,30.05,SE,143,2.0,4.0,76,0.00,,,0.01,Wunderground v.1.13,2013-03-30 03:45:00,
2013-03-29 22:48:00,40.3,33.7,30.05,SE,127,2.0,6.0,77,0.00,,,0.01,Wunderground v.1.13,2013-03-30 03:48:00,
2013-03-29 22:49:00,40.2,33.9,30.05,SE,126,2.0,6.0,78,0.00,,,0.01,Wunderground v.1.13,2013-03-30 03:49:00,
2013-03-29 22:52:00,39.9,33.9,30.05,SE,127,2.0,2.0,79,0.00,,,0.01,Wunderground v.1.13,2013-03-30 03:52:00,
2013-03-29 22:53:00,39.9,33.9,30.05,West,280,2.0,2.0,79,0.00,,,0.01,Wunderground v.1.13,2013-03-30 03:53:00,
2013-03-29 22:55:00,39.8,33.8,30.04,SSE,154,2.0,5.0,79,0.00,,,0.01,Wunderground v.1.13,2013-03-30 03:55:00,
2013-03-29 22:57:00,39.7,34.0,30.04,SE,134,2.0,6.0,80,0.05,,,0.02,Wunderground v.1.13,2013-03-30 03:57:00,
2013-03-29 22:58:00,39.7,34.0,30.04,SE,132,2.0,6.0,80,0.05,,,0.02,Wunderground v.1.13,2013-03-30 03:58:00,
2013-03-29 23:00:00,39.5,33.8,30.04,SE,132,3.0,5.0,80,0.05,,,0.02,Wunderground v.1.13,2013-03-30 04:00:00,
2013-03-29 23:01:00,39.3,33.6,30.04,SE,132,3.0,6.0,80,0.05,,,0.02,Wunderground v.1.13,2013-03-30 04:01:00,
2013-03-29 23:02:00,39.2,33.5,30.04,SE,132,4.0,6.0,80,0.05,,,0.02,Wunderground v.1.13,2013-03-30 04:02:00,
2013-03-29 23:05:00,39.0,33.7,30.04,SE,130,5.0,6.0,81,0.05,,,0.02,Wunderground v.1.13,2013-03-30 04:05:00,
2013-03-29 23:08:00,38.8,33.8,30.03,SE,130,5.0,6.0,82,0.05,,,0.02,Wunderground v.1.13,2013-03-30 04:08:00,
2013-03-29 23:09:00,38.7,33.7,30.03,SE,130,5.0,6.0,82,0.04,,,0.02,Wunderground v.1.13,2013-03-30 04:09:00,
2013-03-29 23:13:00,38.7,34.0,30.03,SE,130,4.0,5.0,83,0.00,,,0.02,Wunderground v.1.13,2013-03-30 04:13:00,
2013-03-29 23:15:00,38.7,34.0,30.03,SE,130,4.0,4.0,83,0.00,,,0.02,Wunderground v.1.13,2013-03-30 04:15:00,
2013-03-29 23:18:00,38.5,33.8,30.03,SE,130,4.0,5.0,83,0.00,,,0.02,Wunderground v.1.13,2013-03-30 04:18:00,
2013-03-29 23:20:00,38.3,33.9,30.03,SE,130,4.0,5.0,84,0.00,,,0.02,Wunderground v.1.13,2013-03-30 04:20:00,
2013-03-29 23:21:00,38.4,34.0,30.03,SE,130,4.0,5.0,84,0.00,,,0.02,Wunderground v.1.13,2013-03-30 04:21:00,
2013-03-29 23:23:00,38.3,33.9,30.03,SE,130,4.0,5.0,84,0.00,,,0.03,Wunderground v.1.13,2013-03-30 04:23:00,
2013-03-29 23:27:00,38.2,33.8,30.03,SE,130,4.0,4.0,84,0.00,,,0.03,Wunderground v.1.13,2013-03-30 04:27:00,
2013-03-29 23:28:00,38.2,33.8,30.03,SE,130,3.0,4.0,84,0.00,,,0.03,Wunderground v.1.13,2013-03-30 04:28:00,
2013-03-29 23:31:00,38.1,34.0,30.03,SE,129,3.0,5.0,85,0.00,,,0.03,Wunderground v.1.13,2013-03-30 04:31:00,
2013-03-29 23:33:00,38.1,34.0,30.02,SE,130,3.0,5.0,85,0.00,,,0.03,Wunderground v.1.13,2013-03-30 04:33:00,
2013-03-29 23:34:00,38.0,33.9,30.02,SE,130,3.0,5.0,85,0.00,,,0.03,Wunderground v.1.13,2013-03-30 04:34:00,
2013-03-29 23:38:00,38.0,34.2,30.02,SE,130,4.0,5.0,86,0.00,,,0.03,Wunderground v.1.13,2013-03-30 04:38:00,
2013-03-29 23:39:00,37.9,33.8,30.02,SE,129,4.0,5.0,85,0.00,,,0.03,Wunderground v.1.13,2013-03-30 04:39:00,
2013-03-29 23:40:00,37.9,33.8,30.02,SE,130,3.0,4.0,85,0.00,,,0.03,Wunderground v.1.13,2013-03-30 04:40:00,
2013-03-29 23:43:00,37.9,34.1,30.02,SE,129,4.0,6.0,86,0.00,,,0.03,Wunderground v.1.13,2013-03-30 04:43:00,
2013-03-29 23:45:00,37.9,34.1,30.02,SE,130,4.0,4.0,86,0.00,,,0.03,Wunderground v.1.13,2013-03-30 04:45:00,
2013-03-29 23:47:00,37.9,34.1,30.02,SE,129,4.0,4.0,86,0.00,,,0.03,Wunderground v.1.13,2013-03-30 04:47:00,
2013-03-29 23:48:00,38.0,34.2,30.02,SE,129,4.0,5.0,86,0.00,,,0.03,Wunderground v.1.13,2013-03-30 04:48:00,
2013-03-29 23:52:00,38.0,34.2,30.01,SE,129,4.0,6.0,86,0.00,,,0.03,Wunderground v.1.13,2013-03-30 04:52:00,
2013-03-29 23:56:00,37.9,34.4,30.01,SE,130,4.0,6.0,87,0.00,,,0.03,Wunderground v.1.13,2013-03-30 04:56:00,
2013-03-29 23:57:00,37.8,34.3,30.01,SE,129,5.0,6.0,87,0.00,,,0.03,Wunderground v.1.13,2013-03-30 04:57:00,
2013-03-29 23:59:00,37.7,34.2,30.01,SE,130,5.0,6.0,87,0.00,,,0.03,Wunderground v.1.13,2013-03-30 04:59:00,